GFSGL_700_rhum_069.txt.gz
RH
44 50 59 65 69 66 71 87 88 84 91 99 92 99 93 82 99 86 90 83 81 76 58 30 10 6 6 6 6 7 9 13 16 19 27 37 52 76 77 55 23 20 15
55 52 56 50 53 79 90 89 89 92 99 81 93 92 84 97 93 93 85 82 78 59 34 12 7 7 7 7 8 9 10 16 19 28 40 40 51 74 64 22 22 18 14
77 78 84 85 94 99 94 99 86 96 75 92 78 95 95 96 94 86 87 77 69 34 11 8 8 9 9 9 9 10 14 20 28 39 42 42 46 49 27 23 21 18 15
93 93 93 98 100 99 94 99 77 98 98 88 96 84 99 91 90 90 81 83 50 12 9 9 10 11 11 11 11 13 20 25 36 47 46 42 36 29 22 25 22 20 16
77 78 86 93 100 99 98 80 88 99 83 69 90 96 94 92 88 85 71 30 11 10 11 12 12 13 13 13 14 17 28 33 44 54 46 37 29 26 25 28 25 21 18
82 89 88 99 99 99 87 100 99 77 84 99 96 92 94 82 50 24 12 10 10 11 12 14 15 16 16 16 17 19 35 42 55 58 46 35 28 28 28 30 28 24 20
80 76 88 75 98 80 77 99 80 96 97 96 88 88 57 30 15 11 11 11 12 13 15 17 19 18 18 18 21 26 38 52 65 60 49 34 27 29 29 31 31 28 23
77 60 95 100 100 98 99 85 98 95 98 88 77 45 27 15 12 12 12 13 15 16 18 20 20 18 18 27 26 30 48 64 75 73 57 37 28 30 29 32 34 32 27
63 92 100 93 87 93 98 99 87 87 87 66 40 20 14 13 14 14 16 17 18 19 19 17 19 19 29 40 34 37 57 76 92 86 71 42 32 32 32 32 35 35 30
76 77 90 100 98 89 91 88 89 80 56 29 15 13 13 14 16 18 19 19 16 12 11 10 14 30 49 49 45 45 49 90 99 96 92 56 38 35 34 33 36 39 34
98 100 91 86 98 91 86 90 72 38 19 14 13 13 14 17 19 18 14 11 10 10 9 9 12 48 77 66 52 40 51 99 100 100 100 84 50 43 39 36 37 41 38
91 95 100 98 91 88 81 51 21 16 14 14 13 16 21 22 17 8 7 7 6 6 7 8 66 61 96 87 76 51 53 89 100 91 98 100 93 54 48 43 41 44 41
100 100 96 92 84 62 28 19 16 14 14 16 23 24 19 8 5 5 5 4 5 5 6 8 57 79 100 99 97 65 72 99 99 100 100 100 99 83 54 49 43 47 45
98 96 89 71 39 24 18 16 15 17 23 25 20 11 6 5 5 5 5 4 4 5 6 8 37 43 100 99 98 86 70 86 98 99 96 99 100 100 66 48 44 48 50
94 78 51 34 22 18 16 15 20 26 24 14 7 6 6 6 6 5 5 4 5 8 11 11 73 97 96 99 99 93 83 91 92 99 100 100 100 100 79 50 46 49 54
63 43 28 22 18 15 17 25 28 20 10 7 6 6 6 6 5 5 5 7 28 66 43 64 100 79 99 99 99 99 96 92 93 99 99 100 100 100 74 52 50 50 58
34 27 23 17 16 20 29 30 21 11 8 7 7 7 6 6 6 5 6 13 52 74 98 100 99 100 100 100 98 100 100 94 100 92 98 100 100 100 64 55 52 52 60
28 23 16 18 24 32 30 22 14 9 8 8 8 7 6 6 6 6 8 17 61 92 97 81 76 88 90 87 96 100 100 97 99 100 97 100 100 98 64 56 54 55 63
18 19 22 29 34 32 23 14 10 9 9 9 8 7 7 7 7 10 12 18 81 96 96 85 96 89 96 100 100 100 99 99 100 97 96 100 100 99 76 58 58 58 66
22 26 33 36 33 23 14 12 11 10 10 9 8 7 7 7 8 11 16 19 48 98 100 100 100 100 100 100 99 99 100 98 100 95 99 100 100 100 89 59 61 60 68
30 38 39 36 26 16 12 12 11 10 9 8 9 10 9 10 14 18 24 27 25 27 88 100 100 100 100 100 100 100 100 100 100 100 100 100 100 100 96 67 63 63 68
43 44 40 30 18 13 12 12 10 9 9 10 12 12 14 20 25 31 35 37 36 43 62 72 87 99 100 100 100 100 100 99 93 99 100 100 100 100 100 100 78 68 67
51 45 36 22 13 12 12 10 10 10 12 15 16 14 19 28 36 42 45 47 48 49 68 83 90 100 100 100 100 100 100 98 98 100 100 100 95 100 100 100 98 86 73
52 43 27 16 12 11 11 11 12 14 17 20 18 18 28 38 46 52 54 55 57 60 60 76 90 96 100 100 100 100 98 100 95 100 97 100 100 96 100 100 100 100 94
57 38 21 13 12 11 12 14 16 20 24 24 21 25 39 51 57 58 56 53 50 48 60 67 76 92 99 100 100 100 100 100 100 100 100 100 100 100 100 100 100 100 100
44 24 15 12 12 13 15 18 23 27 30 27 25 36 50 60 64 63 57 50 46 44 44 47 66 70 91 97 100 100 100 100 100 100 100 100 100 100 100 100 100 100 100

GFSGL_700_rhum_072.txt.gz
RH
78 73 61 63 62 74 78 79 83 80 94 98 99 99 97 88 84 83 70 79 81 79 77 73 70 42 14 8 8 9 10 11 15 11 24 73 34 25 32 35 36 36 25
56 51 50 54 57 65 74 84 91 99 99 98 98 98 97 86 89 86 89 82 79 76 74 77 52 15 9 9 10 11 12 15 49 17 13 51 90 48 40 39 37 29 18
56 68 74 79 84 94 98 94 99 100 98 92 98 98 91 97 92 92 84 78 75 74 69 36 13 10 10 12 13 15 16 46 74 46 19 31 38 53 48 47 34 24 20
63 80 87 89 83 89 87 99 100 99 98 90 99 97 99 99 87 83 78 69 51 28 14 10 10 12 13 14 16 18 20 20 19 22 27 33 51 80 94 89 70 35 24
71 78 78 81 83 98 98 100 98 94 79 99 95 89 88 86 85 76 50 33 17 12 10 11 12 13 15 17 20 20 22 20 22 28 40 56 86 100 100 100 96 24 26
76 76 74 81 91 97 98 100 89 96 99 98 86 81 88 86 65 43 25 15 12 11 12 13 15 17 18 18 20 21 20 22 32 73 94 92 100 100 100 100 91 28 28
68 71 75 83 76 89 88 94 88 98 94 96 88 83 85 58 40 17 13 12 12 13 14 16 18 20 19 16 14 15 14 23 38 50 73 83 74 66 56 49 38 35 31
63 75 84 82 67 90 99 78 96 97 87 96 86 78 58 26 15 13 13 13 14 16 19 19 16 12 11 16 24 26 31 51 47 49 75 88 93 85 60 41 36 36 32
74 87 74 66 93 91 88 100 97 88 80 82 76 49 21 16 13 13 15 18 22 20 10 6 6 6 8 16 28 34 55 62 57 61 86 98 98 99 78 50 41 40 33
69 63 75 81 84 100 92 78 94 84 86 73 33 22 16 13 13 19 22 19 9 6 5 5 5 5 5 64 97 72 89 75 68 63 50 78 98 98 95 67 48 45 40
56 60 98 99 98 86 93 95 89 82 57 29 22 16 13 16 24 22 10 6 6 6 6 5 5 4 5 7 80 97 88 99 72 66 83 99 99 98 99 88 65 50 44
73 92 94 93 96 99 96 89 72 41 29 21 15 14 22 25 18 9 6 6 6 6 6 5 4 4 5 6 72 97 100 99 86 93 88 98 100 100 100 96 92 58 49
84 90 92 99 97 95 87 54 37 26 21 14 16 26 25 17 10 7 7 7 7 6 5 4 5 6 10 10 96 82 95 99 99 94 100 99 100 100 100 99 99 86 55
99 100 99 96 93 72 45 32 25 18 14 20 28 26 18 11 8 7 8 8 7 6 4 5 11 20 26 21 68 73 100 98 97 95 100 100 100 100 100 100 100 100 56
98 98 96 81 53 38 28 24 16 16 24 30 26 19 12 9 8 8 9 8 7 5 5 9 47 60 73 89 99 100 99 97 91 87 85 91 100 100 100 100 100 98 54
98 91 67 47 33 28 22 16 20 28 31 27 20 14 10 9 9 9 9 8 5 5 5 19 54 82 94 100 100 100 100 100 92 93 83 89 95 100 100 100 100 86 53
85 63 40 33 30 19 18 23 31 33 28 19 14 11 10 10 10 10 9 6 6 6 8 18 59 86 81 84 100 100 100 100 100 100 93 89 98 100 100 100 100 65 53
59 38 36 27 18 21 26 33 35 30 23 17 14 11 11 11 10 10 8 7 7 8 10 14 57 100 87 90 98 92 96 100 100 100 100 97 100 100 100 100 99 63 56
83 50 22 23 26 29 37 39 36 30 21 15 12 12 12 10 9 8 8 8 8 10 14 17 27 84 96 88 100 100 100 100 100 100 100 100 100 100 100 100 97 62 60
43 29 32 31 34 41 44 41 36 26 16 13 12 12 11 10 9 9 10 10 13 18 22 23 22 30 97 100 100 100 100 100 100 100 100 100 100 100 100 100 99 69 62
55 49 38 38 46 51 48 43 34 21 15 13 12 11 10 10 10 12 12 13 19 26 32 33 30 33 43 70 100 100 100 100 100 100 100 100 100 100 100 100 100 72 67
67 43 44 54 58 55 52 44 30 19 14 12 11 11 11 13 16 16 17 24 31 38 44 44 44 42 60 70 78 98 100 100 100 100 100 97 100 100 100 100 100 96 77
54 54 63 67 65 62 51 37 24 16 13 12 12 12 14 18 21 21 25 35 44 49 50 49 49 51 53 74 86 92 99 100 100 100 100 100 98 100 100 100 100 100 100
66 75 79 77 71 58 46 31 20 14 12 13 15 18 22 26 25 26 35 47 56 58 54 48 45 44 53 60 86 97 96 98 100 100 100 99 100 100 100 100 100 100 100
89 89 87 81 73 60 40 24 16 14 16 18 22 27 31 31 29 36 49 59 63 61 54 45 41 40 40 52 66 93 100 100 98 95 93 89 98 100 100 100 100 100 100
92 90 88 85 74 50 26 17 17 19 22 27 34 37 37 34 37 50 64 68 63 57 51 43 37 33 33 36 54 71 98 100 100 100 95 92 85 100 100 100 100 100 100

GFSGL_700_rhum_075.txt.gz
RH
75 76 66 77 89 88 75 81 88 99 100 89 99 99 100 99 99 98 95 95 91 83 76 71 68 66 63 48 23 11 9 14 27 12 40 54 67 80 100 82 81 62 52
76 77 78 76 58 58 61 62 86 100 100 98 99 99 94 98 96 96 96 96 86 81 74 70 58 43 23 12 9 9 11 19 60 40 26 44 92 97 94 99 84 53 72
78 66 76 62 60 66 69 79 90 92 99 99 100 96 98 98 97 94 96 86 81 75 64 44 26 14 10 9 10 12 14 28 40 66 54 84 96 57 76 96 92 92 94
57 71 69 63 62 77 80 84 98 92 94 99 99 97 97 100 95 93 83 81 71 54 37 18 12 10 10 12 13 16 19 31 46 66 62 92 49 30 86 96 95 100 97
45 49 63 66 73 76 85 93 99 100 100 99 94 83 97 90 80 75 75 66 50 26 16 12 10 11 13 16 19 19 19 21 26 30 35 78 41 85 98 99 99 98 99
42 50 61 62 63 71 82 92 100 100 100 99 92 97 93 89 84 73 61 45 22 16 11 11 14 20 21 16 9 8 11 20 29 63 46 60 64 98 100 95 96 100 94
57 60 59 60 66 77 92 100 100 97 85 83 97 88 73 73 71 64 38 24 16 11 13 21 22 12 6 6 8 16 46 81 94 93 70 53 66 76 92 95 90 98 100
60 60 62 64 72 91 92 93 79 93 91 88 94 80 73 75 66 32 22 15 12 18 22 16 7 6 6 6 7 10 59 69 100 96 62 69 66 61 92 100 100 96 86
60 60 66 80 92 87 75 90 89 86 96 89 78 76 76 51 32 23 13 13 22 22 12 7 6 7 7 6 5 5 6 10 72 98 76 91 67 68 90 100 98 100 87
40 66 87 85 74 69 73 82 99 94 82 83 85 75 45 26 19 13 18 24 22 14 9 8 8 8 7 6 5 4 6 40 86 100 90 82 70 72 81 100 100 96 95
39 53 56 58 58 79 94 94 82 84 92 87 68 37 25 19 14 19 26 20 12 9 8 10 10 8 7 5 4 4 6 8 18 52 100 98 98 95 74 74 82 88 98
43 48 50 56 85 97 88 90 95 93 86 61 36 25 18 15 23 27 23 14 10 9 10 11 10 8 6 4 4 6 12 15 62 100 83 97 99 99 99 100 100 93 96
52 60 62 74 83 87 96 98 96 83 48 33 27 17 16 26 28 26 20 15 10 10 10 11 10 7 5 7 28 30 25 19 90 62 89 96 98 98 100 100 100 100 100
67 68 81 92 100 99 96 94 65 41 30 26 17 18 27 30 28 24 18 13 10 11 11 11 9 6 14 53 73 74 80 87 87 95 100 98 97 96 95 100 100 100 100
83 87 94 100 98 97 83 54 39 32 25 18 20 28 33 31 27 21 15 13 12 12 12 11 8 5 5 11 68 82 90 95 96 100 96 91 94 96 89 97 99 100 100
98 96 98 100 95 70 49 35 31 25 18 23 30 35 34 32 26 18 14 12 12 12 11 10 7 6 6 9 41 81 100 99 98 99 98 95 96 91 89 92 99 98 100
100 100 96 95 77 40 34 33 20 23 27 31 39 39 34 28 21 15 13 13 12 12 10 8 7 7 7 10 58 98 86 89 100 98 98 91 100 96 96 98 100 100 100
98 96 95 88 78 71 32 26 30 31 37 43 45 43 38 22 16 14 13 12 11 10 9 9 9 9 12 14 21 88 100 97 100 100 100 100 96 100 98 100 100 100 100
95 94 94 94 84 60 67 58 39 42 49 48 46 42 39 28 16 14 12 11 11 11 11 11 13 16 20 21 20 33 100 100 100 100 100 97 99 100 100 100 100 100 100
95 94 94 94 94 95 85 50 49 55 56 54 49 39 31 22 16 13 12 11 12 13 14 16 22 28 32 32 28 28 48 100 100 100 100 100 100 100 100 100 100 100 100
95 95 95 95 95 81 58 58 63 65 63 55 45 36 32 18 14 12 12 13 15 18 19 24 33 39 42 44 41 42 54 56 97 100 100 100 100 100 100 100 100 100 100
95 95 95 95 90 72 70 75 76 73 66 57 46 33 25 16 13 14 17 19 23 24 25 32 42 48 47 46 47 49 57 70 72 92 100 100 100 100 100 100 100 100 100
95 95 95 91 85 84 82 82 80 76 70 58 42 26 16 16 17 20 24 28 29 29 38 48 54 56 53 46 43 45 54 73 85 92 100 100 100 100 100 100 100 100 100
95 96 95 93 90 88 86 85 83 79 69 50 27 19 19 22 25 30 33 34 32 38 53 60 60 57 51 44 39 40 46 64 90 95 96 100 100 100 100 100 100 100 100
97 96 95 94 95 94 93 91 84 70 45 25 21 23 27 31 36 39 39 37 39 54 66 65 56 50 48 43 36 34 36 50 76 100 100 96 100 100 100 100 100 100 100
97 97 97 96 96 96 94 85 61 33 24 25 28 33 38 43 45 44 43 43 53 71 70 58 54 49 43 39 38 36 33 37 59 95 100 97 94 100 98 100 100 100 100

GFSGL_700_rhum_078.txt.gz
RH
56 59 69 74 79 79 68 76 87 75 73 78 100 100 100 99 100 99 99 98 98 95 92 91 88 76 61 47 28 16 11 9 9 9 12 14 18 22 33 44 74 85 100
64 66 67 76 79 74 76 83 62 65 63 67 69 85 99 99 99 97 97 96 96 90 87 76 72 59 40 20 13 10 10 10 12 16 19 21 26 51 82 89 48 67 85
91 89 63 77 81 82 83 62 60 75 82 89 95 100 99 100 98 98 95 99 89 80 72 71 56 34 17 12 10 10 13 17 19 21 15 14 25 55 70 63 71 94 80
85 70 64 78 63 77 80 67 74 88 86 99 98 100 100 100 99 86 99 87 74 72 67 54 27 17 12 11 15 20 19 13 10 9 10 20 58 49 58 60 71 83 85
49 59 57 59 58 75 74 76 96 93 100 99 99 100 99 98 89 91 86 77 72 65 49 24 17 12 13 20 20 10 6 6 7 7 9 20 61 69 89 67 67 90 93
48 48 50 61 52 64 85 79 78 100 100 99 99 98 99 88 91 84 73 70 65 48 27 18 12 16 21 16 8 7 7 8 8 10 22 81 93 96 87 73 79 100 97
41 42 48 47 60 68 66 72 86 99 100 100 100 90 88 84 92 78 74 70 53 30 20 12 18 21 15 9 8 10 10 8 7 8 44 61 72 90 92 60 69 83 77
40 45 47 56 64 68 70 86 100 100 100 100 91 91 98 97 81 76 71 50 31 21 13 20 21 16 10 8 10 11 10 8 6 5 26 47 82 74 100 73 77 63 70
51 56 60 61 66 75 91 100 100 91 99 100 90 98 91 84 82 74 48 31 22 13 21 23 19 14 9 10 12 12 11 8 4 4 5 35 71 51 98 83 76 71 54
30 28 28 35 71 96 99 85 84 82 86 97 99 88 93 84 76 50 30 20 14 23 25 22 17 12 10 11 12 12 10 6 5 4 5 12 58 90 100 96 98 81 89
23 26 36 62 76 73 71 75 89 100 100 93 95 95 88 69 47 30 20 15 24 27 26 23 17 13 12 13 13 11 8 6 5 9 9 11 11 44 64 90 97 97 99
27 32 44 53 58 66 73 99 100 100 92 98 99 90 57 35 30 21 15 26 29 30 28 24 21 15 13 13 13 10 7 9 19 30 19 19 87 93 76 100 95 86 89
34 41 51 60 60 65 78 94 96 99 100 98 87 43 31 26 20 16 26 32 33 31 27 22 17 14 14 14 13 10 6 17 50 62 60 34 79 90 100 100 100 95 100
41 49 61 73 76 86 94 96 100 99 98 86 49 29 26 19 21 29 33 36 35 32 27 20 17 17 16 14 13 10 6 11 76 85 77 84 90 100 100 100 95 97 97
47 61 76 85 88 96 98 100 100 95 91 79 60 44 21 26 31 36 40 39 38 34 28 22 20 19 15 14 11 8 6 13 57 100 100 90 91 96 94 97 92 88 89
66 69 93 100 100 100 100 97 96 88 84 85 58 36 33 36 41 44 45 43 37 31 26 21 18 15 13 12 10 8 7 11 80 98 100 100 100 100 94 98 97 98 93
92 98 98 98 97 96 96 96 94 96 94 70 70 62 44 46 49 49 48 42 33 31 23 18 14 12 11 10 10 10 9 12 34 100 95 100 100 96 90 98 100 98 91
99 97 97 96 97 95 95 95 95 93 92 91 86 73 66 63 57 50 48 43 37 26 18 14 12 12 12 13 14 16 17 19 18 36 100 100 99 100 97 96 100 100 96
97 96 96 96 95 95 95 94 95 95 94 93 92 88 84 71 63 55 50 46 38 25 15 13 14 15 17 18 23 27 31 30 26 24 80 100 100 100 100 100 100 98 100
96 96 95 95 95 96 95 95 95 95 93 92 93 85 76 71 66 59 46 35 24 17 15 16 18 22 24 27 34 39 42 44 39 40 50 100 100 100 100 99 92 100 100
96 95 95 95 95 95 95 95 95 95 95 93 85 80 76 74 69 58 43 24 18 17 19 23 25 28 32 39 48 50 47 46 48 49 56 64 100 100 100 100 100 100 100
96 96 95 95 96 95 96 95 95 96 96 91 86 86 82 76 64 46 28 21 22 24 28 32 33 34 41 50 57 57 52 46 44 48 63 74 73 100 100 100 100 100 100
96 95 96 96 95 95 96 96 97 98 95 94 94 93 86 61 37 26 24 26 30 35 39 39 38 43 57 64 62 57 51 43 40 42 52 80 88 93 100 100 100 100 100
96 95 94 95 96 97 99 98 97 97 97 96 92 74 44 28 26 29 32 37 42 45 44 43 49 62 68 66 56 51 47 43 37 37 46 73 92 99 100 100 100 100 100
94 95 97 99 98 97 97 95 88 74 50 31 24 24 27 29 33 39 46 50 51 49 48 55 66 76 70 60 54 48 44 41 38 34 38 60 93 100 100 100 100 100 100
94 94 95 90 77 55 33 21 19 20 21 23 25 27 31 38 44 50 54 55 53 52 57 73 82 75 67 59 52 51 56 60 57 47 35 50 93 100 100 100 100 100 100

GFSGL_700_rhum_084.txt.gz
RH
55 58 55 50 44 50 63 66 68 77 89 95 95 95 99 74 70 80 74 98 74 93 100 100 96 97 98 100 94 80 77 68 53 32 18 10 12 12 10 10 11 10 10
56 52 47 60 72 85 65 71 80 94 96 99 94 100 88 70 81 86 72 83 98 98 100 99 100 92 93 86 74 77 69 52 31 20 11 13 13 12 11 12 12 11 11
53 52 49 46 55 75 82 81 92 98 74 84 91 86 74 76 84 80 79 92 95 99 99 99 99 88 82 77 77 66 53 30 20 12 14 16 14 12 12 13 12 10 10
43 45 41 35 46 55 58 91 100 86 87 73 80 84 83 84 82 79 90 97 100 99 99 99 92 87 81 74 66 50 29 21 13 17 18 16 14 12 13 14 14 12 10
27 33 42 55 61 67 79 92 80 73 77 78 86 74 75 81 90 98 98 99 89 99 98 85 95 90 77 68 51 29 20 13 19 20 18 17 15 14 14 15 16 14 12
37 41 43 51 58 61 65 60 62 65 72 87 85 77 78 83 87 100 99 98 99 98 82 96 98 84 73 51 30 22 14 18 22 20 18 17 16 15 16 17 17 13 10
60 54 52 50 50 52 52 55 64 72 80 84 77 89 94 81 98 99 100 98 97 94 100 100 92 75 52 29 22 15 19 24 23 22 21 18 19 16 16 18 16 12 9
63 55 49 52 56 54 54 58 64 67 72 79 90 91 89 100 99 90 98 99 100 100 98 93 79 52 27 22 16 20 25 26 26 23 22 21 17 15 16 16 14 11 8
45 38 45 49 49 46 45 53 62 65 72 84 96 100 87 99 83 99 100 93 100 99 96 92 58 55 32 18 20 26 28 30 29 28 24 21 18 16 15 14 12 11 8
40 45 37 31 32 33 34 38 47 46 80 98 97 99 100 96 99 98 74 98 98 99 92 63 62 58 39 50 42 31 35 35 35 34 30 24 22 20 14 11 10 13 21
37 32 35 38 36 28 23 23 26 51 97 99 96 99 99 99 99 89 100 97 97 88 48 55 63 72 76 45 43 53 50 43 40 37 35 31 27 21 15 12 10 36 40
35 36 40 42 38 31 29 31 49 87 99 100 100 98 94 100 100 100 97 95 90 87 88 94 94 76 66 71 77 75 60 48 40 39 35 31 25 18 14 10 10 41 55
37 38 40 44 43 40 39 54 93 100 100 100 99 100 99 98 97 96 95 84 68 92 96 95 95 93 90 91 78 59 48 42 40 38 36 28 21 16 13 10 12 65 68
37 38 42 46 48 50 69 100 100 100 100 99 98 97 97 97 97 91 77 89 95 95 95 96 95 95 95 94 84 65 54 45 41 38 32 24 16 13 11 10 20 94 80
41 42 46 53 64 84 99 100 100 99 98 98 97 97 97 96 94 95 95 96 95 95 97 97 96 97 97 96 89 72 53 47 40 30 22 16 13 12 10 11 46 99 100
57 59 66 82 97 99 97 98 98 98 99 97 96 95 95 95 96 95 96 96 96 96 97 96 96 97 97 97 89 60 54 46 35 24 17 14 13 12 11 12 41 100 97
94 97 97 97 98 98 98 97 96 95 95 96 96 96 95 95 96 96 95 96 96 96 96 96 96 96 96 94 67 62 54 42 29 20 16 16 16 16 18 18 17 97 100
98 98 98 99 99 97 96 96 96 96 96 96 96 96 96 96 96 96 96 97 96 97 96 96 96 96 89 82 72 60 44 31 22 20 20 22 22 26 29 31 23 29 88
97 97 97 96 96 96 95 94 95 95 94 95 97 97 97 97 99 98 97 97 97 97 97 97 98 97 94 79 55 37 28 24 25 26 29 29 34 42 41 41 34 32 100
96 96 95 95 95 95 95 95 95 96 96 96 97 99 100 99 97 97 97 97 97 99 100 100 99 84 53 38 29 27 29 32 34 35 37 44 51 53 48 46 46 62 99
93 94 95 94 93 94 95 96 96 96 97 97 98 98 98 98 99 99 100 100 100 100 94 68 43 33 30 31 32 33 38 42 42 42 46 56 59 56 51 47 53 70 100
90 91 92 94 95 95 96 96 97 97 97 98 100 100 100 100 100 98 88 69 46 36 33 31 31 34 37 40 42 47 49 47 50 56 64 64 57 53 46 44 58 72 100
89 89 89 89 88 86 82 80 79 77 71 64 57 48 39 33 28 28 29 31 31 30 32 35 38 42 48 54 56 53 50 54 65 72 64 55 50 47 44 41 56 84 100
77 69 58 47 32 20 14 12 12 15 17 20 24 28 31 34 36 38 38 38 37 39 43 47 48 50 56 59 60 60 63 72 76 68 62 55 48 45 41 39 54 90 97
12 6 6 6 6 7 8 10 11 12 14 17 21 27 35 42 47 48 49 48 48 49 52 58 61 59 58 60 66 76 86 82 74 67 59 52 53 55 47 38 52 94 97
5 6 7 8 9 9 9 9 9 11 15 21 28 36 44 53 59 60 60 58 59 65 68 67 65 63 69 80 89 91 86 78 69 69 70 76 80 79 62 39 53 97 100

GFSGL_700_rhum_090.txt.gz
RH
41 39 44 45 48 52 55 59 62 65 68 71 78 86 95 99 98 96 100 100 99 94 88 95 94 97 87 98 78 98 97 82 72 95 100 93 96 92 88 73 49 26 16
57 57 57 59 52 50 50 51 54 54 66 76 84 89 96 100 100 96 97 99 99 88 87 98 96 96 99 80 96 94 100 98 90 99 98 85 83 82 73 58 31 19 14
54 64 71 75 58 59 59 61 63 69 76 91 95 97 79 82 95 99 99 99 99 100 98 99 98 95 90 95 99 93 86 99 99 98 89 88 87 80 64 41 26 17 17
31 29 48 57 60 62 63 69 72 67 77 76 97 95 84 90 86 88 86 88 96 99 99 95 97 99 100 99 96 99 92 99 99 93 88 97 92 74 53 31 24 17 20
37 36 33 36 34 35 47 56 59 68 73 74 75 83 85 88 89 96 92 94 96 99 95 95 92 99 96 100 89 100 100 98 97 93 99 98 93 61 37 36 21 23 33
38 39 39 40 45 47 51 57 60 56 57 66 68 69 73 75 78 77 81 88 87 92 97 100 99 96 100 98 100 98 98 97 95 97 99 98 77 77 41 36 40 48 52
50 51 51 50 63 60 60 60 58 56 56 57 63 69 59 61 76 84 86 85 98 96 99 99 100 93 99 88 98 98 96 96 96 96 97 92 90 58 85 45 43 64 58
49 53 63 68 70 62 70 56 58 60 66 68 67 71 76 84 81 85 87 99 100 99 93 99 98 99 98 100 99 97 97 97 96 96 94 80 44 82 63 80 72 64 82
55 58 72 78 75 60 64 64 60 59 62 54 47 43 44 80 84 99 88 93 100 92 96 99 98 99 99 98 98 96 96 96 97 96 85 65 88 95 95 85 89 91 80
22 51 75 79 60 61 60 61 57 57 37 39 38 33 38 87 98 98 97 100 100 99 94 91 96 100 99 97 97 96 96 96 96 85 90 96 96 96 96 96 95 93 93
23 30 46 51 50 49 58 56 39 37 40 42 41 39 58 56 84 90 93 94 100 75 97 100 98 98 97 96 96 95 95 96 96 97 96 96 96 96 97 96 96 95 94
33 36 42 45 48 49 42 37 38 41 44 46 51 84 90 96 100 100 97 93 92 99 98 97 98 97 96 96 96 96 97 96 95 95 96 97 97 97 97 97 96 96 96
38 40 43 43 42 39 39 42 47 53 57 61 68 89 98 100 100 100 100 99 98 97 96 96 95 95 96 97 96 96 96 96 97 97 97 97 97 96 96 96 96 96 86
55 55 55 54 54 54 54 58 66 80 89 90 97 100 100 100 100 100 98 96 96 96 95 96 96 96 95 96 96 96 96 96 96 96 96 96 96 96 96 96 91 80 73
55 59 63 68 73 77 80 85 89 92 97 100 98 98 97 96 96 95 95 96 96 96 96 96 96 96 96 96 96 96 97 97 97 97 97 97 97 96 90 83 81 75 65
70 73 77 79 80 84 86 87 94 97 96 96 96 96 96 96 95 95 96 96 95 95 95 95 96 96 96 97 97 97 98 98 98 98 98 96 92 89 83 73 57 37 25
77 77 77 77 79 83 87 91 94 95 96 96 97 98 97 97 97 96 94 94 95 96 95 96 97 97 98 99 99 99 100 99 98 96 95 90 77 53 31 22 20 19 18
81 83 84 86 86 87 88 90 92 94 95 96 96 96 93 93 93 94 96 97 97 98 99 99 100 100 100 100 100 100 100 96 84 63 41 30 27 25 24 26 27 28 29
91 91 90 89 87 89 90 92 93 93 92 90 90 91 91 88 86 82 79 80 85 89 94 94 91 84 76 65 52 42 35 33 33 32 32 32 34 34 38 42 41 41 38
93 93 92 93 92 88 85 82 81 78 70 56 38 23 16 11 11 9 10 11 13 16 19 23 27 32 35 37 39 40 40 41 42 43 44 48 53 56 56 51 51 50 56
94 93 88 80 78 72 57 33 12 4 4 4 4 5 6 6 7 8 8 9 10 13 17 23 29 35 41 46 49 51 52 54 60 62 65 68 67 65 67 63 66 68 63
89 79 68 42 14 4 3 3 4 5 6 6 6 6 7 7 8 8 7 8 10 14 20 28 39 50 58 60 61 64 68 73 78 76 73 72 74 80 79 79 75 65 57
42 12 4 3 3 4 5 5 6 6 6 6 7 8 7 7 6 6 8 11 17 28 42 54 63 68 73 78 83 79 74 77 78 78 78 83 88 90 84 77 70 62 55
4 3 3 4 5 5 5 6 6 6 7 8 7 6 6 7 9 14 20 30 45 56 64 69 72 73 75 78 82 82 80 82 86 93 94 94 91 86 82 75 70 62 55
4 5 4 4 5 6 6 6 7 8 9 8 8 9 12 16 22 30 39 49 57 61 66 69 69 70 73 78 84 91 98 100 100 100 98 95 91 90 86 80 79 74 62
4 4 5 6 6 7 7 8 10 12 13 14 17 21 26 33 40 46 49 52 53 56 60 64 71 80 88 94 97 98 99 99 98 94 89 93 98 100 98 97 94 86 69

GFSGL_700_rhum_093.txt.gz
RH
33 36 39 41 45 49 50 51 53 58 60 65 68 71 74 77 80 83 86 90 97 100 99 100 99 100 100 97 96 98 99 100 94 90 99 100 98 97 99 97 86 85 83
56 52 41 44 47 49 50 54 58 63 68 69 72 75 77 81 89 96 97 98 98 99 99 100 99 100 97 90 98 96 99 98 93 97 99 99 100 100 99 98 92 88 84
62 60 62 59 63 63 69 65 57 63 66 69 76 78 87 94 100 99 92 86 91 98 100 99 95 98 98 91 100 95 91 91 100 99 100 100 99 100 99 97 99 98 88
46 42 44 54 66 63 62 70 78 72 64 67 73 78 81 90 95 88 88 100 94 88 93 93 97 99 87 99 100 89 98 99 99 98 100 100 99 98 98 98 95 96 91
35 35 34 36 44 53 69 71 68 69 71 73 71 74 77 82 82 84 97 96 91 93 94 100 100 99 100 96 98 95 99 99 98 98 99 100 97 96 95 96 95 96 76
39 38 38 36 35 38 40 41 53 58 62 63 65 64 60 67 73 75 77 79 81 86 88 84 93 96 86 100 96 100 100 99 98 99 99 98 98 96 96 96 92 92 92
43 48 50 47 44 42 49 57 58 58 59 59 59 55 57 60 65 71 74 74 82 93 98 99 98 94 99 92 98 98 100 99 97 98 98 96 96 97 97 97 96 95 71
40 41 52 56 58 59 62 65 65 64 68 51 52 61 60 70 64 78 88 95 100 84 99 100 100 98 98 97 96 99 99 98 98 98 97 96 96 96 95 95 95 89 92
35 35 41 55 59 65 70 78 72 56 58 58 53 61 69 58 45 42 36 55 69 76 78 82 97 100 98 100 98 97 98 100 99 97 96 96 96 96 96 95 95 94 92
30 23 18 23 42 71 77 76 60 65 70 72 75 68 40 43 48 42 42 45 45 99 98 98 99 99 98 96 100 100 100 98 98 96 96 96 96 94 95 95 96 94 93
31 26 26 29 39 50 61 61 65 69 79 70 46 40 43 46 47 53 54 65 87 91 91 100 100 100 100 99 98 97 96 96 96 96 96 95 95 94 96 97 96 96 95
38 38 37 37 40 45 49 52 53 51 45 44 46 48 52 56 64 70 74 98 100 99 98 98 97 97 97 96 96 96 96 96 96 95 95 95 96 96 96 97 96 96 96
44 44 43 41 42 45 46 46 46 46 49 54 61 69 82 92 97 100 100 99 98 97 96 96 96 96 96 95 95 95 95 95 96 96 96 96 96 96 96 96 97 97 97
53 54 57 59 59 61 64 66 66 67 71 81 90 100 100 99 99 98 97 96 96 96 96 95 95 95 95 95 95 95 95 95 96 96 96 97 97 97 97 97 97 98 97
62 61 64 68 70 73 76 80 82 88 95 99 99 97 96 96 97 97 96 95 94 94 95 95 95 96 96 95 95 95 96 96 96 97 98 98 98 98 99 99 96 92 85
72 76 79 77 75 76 77 78 80 84 88 91 95 97 97 97 94 93 92 91 89 87 88 90 92 93 95 97 99 100 100 100 100 100 100 100 100 100 96 90 79 63 44
85 83 80 78 77 79 81 86 88 90 92 91 90 90 89 87 84 84 82 76 66 51 39 30 32 40 51 61 70 75 78 77 70 65 59 52 44 38 35 34 33 30 27
87 86 81 80 83 87 88 89 88 86 82 77 73 67 54 32 14 5 4 4 4 5 6 6 8 9 12 15 19 24 28 33 37 40 43 44 45 45 43 42 41 39 38
92 89 87 89 89 88 84 77 73 65 46 20 5 3 3 3 4 4 5 5 6 6 7 7 7 8 9 13 18 24 32 40 46 50 52 54 56 59 59 60 58 57 55
95 93 95 92 83 74 62 32 8 3 3 3 3 4 4 4 4 5 5 6 6 6 5 5 6 7 11 17 27 39 51 60 66 70 70 74 78 78 76 72 70 68 68
95 96 88 73 44 10 3 3 3 3 3 3 3 4 4 5 5 6 6 5 6 6 8 10 14 21 32 45 57 65 71 77 82 83 84 87 87 86 84 80 80 80 76
89 62 22 4 3 3 3 3 3 3 3 4 4 5 6 6 7 7 7 8 10 13 17 22 31 40 49 55 60 64 69 74 78 80 83 85 87 89 90 91 88 83 76
10 3 3 3 3 3 3 3 4 4 4 5 6 7 8 9 10 13 17 22 27 33 37 41 45 50 54 57 60 61 65 71 78 83 88 94 98 98 95 91 86 80 76
3 3 3 3 3 3 4 4 5 5 6 8 9 11 13 17 20 24 28 31 34 36 37 39 41 44 51 60 70 79 84 88 91 94 97 100 100 100 96 91 86 83 81
3 4 4 4 4 4 5 5 6 7 9 10 12 15 18 21 24 26 28 31 35 38 44 49 55 61 68 72 72 74 76 80 84 87 92 97 100 99 97 97 97 98 94
4 4 4 4 5 6 7 7 8 9 11 14 16 19 21 23 25 28 30 34 38 42 44 47 50 53 57 64 71 79 86 90 92 94 96 100 100 100 98 100 100 100 99

GFSGL_700_rhum_096.txt.gz
RH
31 35 38 42 44 46 45 46 47 51 54 58 61 62 63 65 66 70 71 73 75 77 80 84 87 92 97 99 99 94 96 94 99 100 99 98 97 99 86 84 88 89 78
52 35 35 38 40 43 47 51 56 58 60 62 64 66 68 71 73 75 76 80 86 91 96 100 99 99 99 100 100 99 99 100 99 98 100 96 99 99 95 99 99 85 94
61 59 53 40 40 41 45 47 56 59 63 66 67 69 70 72 73 76 78 87 98 99 100 94 96 100 92 98 99 100 100 99 96 97 99 99 100 97 98 98 99 99 99
46 58 58 60 60 47 54 58 62 72 70 69 73 77 79 80 78 77 80 83 87 95 94 86 98 100 99 90 97 99 100 99 100 99 99 99 100 99 99 99 99 98 98
35 49 38 37 49 60 66 66 68 69 76 87 91 80 71 71 78 89 93 99 97 91 93 98 92 96 98 99 100 100 99 99 100 100 99 99 99 98 98 98 98 98 97
30 32 34 33 31 32 34 42 64 68 79 86 81 78 80 84 78 73 80 79 83 81 75 73 76 88 89 94 100 100 82 100 100 100 98 99 98 99 98 98 96 96 97
37 40 39 38 37 36 35 37 39 43 50 53 53 54 58 63 64 62 61 69 69 74 78 84 96 86 92 99 99 94 99 99 98 98 98 99 98 99 97 96 97 97 97
38 40 44 48 49 48 46 43 44 49 57 59 64 66 68 63 57 62 59 75 67 77 74 66 56 76 97 96 88 98 99 100 99 99 98 97 96 97 98 97 96 96 96
34 38 42 44 46 50 58 62 66 70 75 79 77 79 73 62 53 64 70 74 53 51 50 44 57 47 61 94 99 100 98 98 98 98 98 98 97 96 96 96 96 95 95
33 36 40 38 35 27 36 55 62 74 85 82 74 72 65 58 78 80 92 50 62 59 51 52 52 64 81 90 100 100 99 98 98 97 96 96 96 95 96 95 96 95 96
35 37 34 30 27 21 26 45 77 84 80 69 65 80 94 99 92 56 50 52 53 57 64 71 88 100 100 100 98 97 96 96 95 95 95 96 96 96 96 95 95 95 95
33 32 30 32 35 35 35 35 42 51 54 63 71 70 62 54 54 59 70 81 93 98 98 98 99 98 97 96 96 96 95 95 95 95 95 95 95 95 95 96 96 96 97
35 37 35 39 44 48 43 43 44 47 49 50 52 57 65 79 88 97 100 100 100 99 96 95 95 94 94 94 94 94 94 94 94 95 95 95 95 96 97 97 97 97 97
48 44 44 52 55 57 58 59 62 68 72 76 80 87 97 98 100 100 98 97 97 95 93 91 89 88 87 88 86 83 82 83 86 89 94 96 97 98 98 99 97 98 98
49 53 60 63 64 69 73 72 72 72 76 79 82 86 89 90 91 88 86 85 83 81 80 74 64 50 32 18 10 8 8 11 17 30 46 70 89 100 100 100 100 100 100
62 74 77 84 77 76 73 73 75 77 80 83 85 84 81 79 75 70 61 47 28 11 5 3 3 3 4 5 6 7 8 9 11 14 20 27 33 40 45 49 54 55 53
94 98 97 82 76 75 73 76 79 82 81 79 74 66 56 36 13 3 3 2 3 3 3 3 4 4 5 5 5 6 6 8 10 15 21 30 38 44 49 52 54 56 53
94 83 81 79 74 75 79 80 78 71 61 43 18 4 3 3 2 2 2 3 3 4 4 4 4 4 4 5 5 6 6 8 13 20 30 41 52 60 64 68 70 69 67
85 85 82 77 79 84 79 68 48 18 4 3 3 2 2 2 2 3 3 4 4 4 5 5 5 6 7 8 10 13 16 22 30 40 52 60 66 73 79 83 84 85 83
87 85 83 82 81 67 34 7 3 3 2 2 2 2 3 3 3 4 4 5 6 7 9 11 13 15 16 18 21 25 31 39 46 53 58 63 69 77 81 84 88 88 87
90 88 84 62 20 4 3 3 2 2 2 2 3 3 4 4 4 5 6 8 10 12 15 19 22 25 29 32 36 41 45 48 51 54 59 65 72 78 84 89 91 92 91
84 54 14 4 3 3 3 2 2 2 3 3 4 4 4 5 6 8 10 12 13 15 18 21 25 28 31 34 36 41 46 51 58 64 71 78 84 88 91 93 93 92 90
10 4 3 3 3 3 3 3 3 3 4 4 5 5 6 8 10 11 12 14 16 19 23 26 30 35 39 44 50 54 59 65 71 77 83 89 93 92 93 95 96 93 91
3 3 3 3 3 3 3 3 4 5 5 6 6 7 9 11 12 13 16 19 22 25 28 30 34 37 41 45 49 53 58 63 68 73 80 84 89 92 92 93 94 94 92
3 3 3 3 3 3 4 5 5 6 6 7 8 10 12 13 14 16 20 24 28 32 35 39 44 50 56 62 68 73 78 81 83 85 89 93 95 95 94 96 97 99 97
3 3 3 4 4 5 6 6 7 7 8 10 12 12 12 14 17 23 29 34 37 39 42 45 48 54 60 67 72 76 80 82 83 84 86 87 88 88 89 95 97 96 96

GFSGL_700_rhum_099.txt.gz
RH
33 36 37 36 35 35 38 44 50 55 60 62 65 71 74 79 87 82 81 83 85 81 74 77 74 76 81 86 93 99 98 100 97 99 100 100 99 97 99 99 99 98 95
43 33 35 40 43 44 45 45 46 49 52 58 63 65 70 71 71 70 69 70 72 73 74 80 84 82 91 99 100 100 100 100 99 98 98 99 99 99 99 99 99 98 99
58 55 43 34 38 41 44 47 49 52 56 59 61 63 65 66 68 69 70 71 72 74 75 80 89 99 99 100 100 93 97 99 100 90 94 100 96 99 99 100 99 99 99
43 52 58 56 46 41 44 48 51 52 60 64 66 65 67 70 72 74 78 78 75 78 84 96 97 95 93 99 97 100 100 100 100 100 99 100 99 97 95 99 99 99 98
32 38 43 58 61 61 60 50 50 56 60 66 71 73 76 83 84 77 76 76 91 96 99 99 99 100 100 98 93 97 98 99 99 100 98 99 87 99 100 100 99 99 98
24 24 40 52 56 56 54 66 64 68 70 72 74 80 97 96 76 79 90 100 100 100 100 100 99 98 98 100 100 100 100 100 99 100 99 89 99 99 100 99 100 100 99
32 26 29 30 31 32 32 35 38 49 64 56 51 63 76 76 71 70 82 99 98 92 86 93 100 97 100 100 88 72 59 71 78 96 93 100 100 99 100 98 98 99 98
35 35 37 37 38 39 38 36 36 36 39 50 55 55 60 65 69 83 88 85 94 98 100 100 100 99 93 87 68 47 56 57 74 92 96 100 100 100 100 99 97 96 96
37 37 37 39 41 43 49 54 56 58 59 62 65 67 68 71 78 85 91 93 98 90 100 100 100 100 81 81 63 63 70 85 97 100 100 100 98 96 97 96 96 95 94
34 35 38 40 43 47 49 50 48 44 60 64 67 73 81 87 94 99 99 93 100 100 100 100 79 64 63 71 80 93 100 99 99 98 97 96 96 96 96 96 96 96 96
36 36 36 37 38 45 36 28 25 26 42 79 92 99 100 98 96 99 100 100 100 91 61 62 68 77 86 91 95 95 95 95 95 96 96 96 96 96 96 96 96 96 96
39 40 43 40 39 33 30 30 33 37 46 71 81 84 95 97 100 94 80 67 69 77 86 94 98 96 91 89 89 87 86 85 83 82 80 77 73 68 67 73 81 91 98
45 48 40 31 32 32 37 40 44 47 47 50 51 53 58 61 66 74 88 99 99 95 90 87 84 81 78 72 67 59 42 22 10 5 4 5 5 7 10 15 24 40 59
48 39 40 39 42 43 48 52 56 58 60 63 66 69 73 76 78 82 82 84 82 77 70 61 48 31 13 3 2 2 2 2 3 3 4 4 5 6 7 11 13 20 26
44 46 52 49 56 68 82 64 70 72 68 66 67 71 74 77 78 78 70 60 44 23 6 3 2 2 2 2 2 3 3 3 4 4 4 4 5 5 6 8 13 18 27
56 66 69 75 87 82 86 92 79 66 68 71 74 76 75 67 56 38 14 4 2 2 2 2 2 2 3 3 3 4 4 5 5 6 7 8 9 11 14 19 30 41 48
89 93 97 99 100 99 96 88 69 67 69 73 70 60 38 11 4 3 2 2 2 2 2 2 3 3 4 5 6 7 8 10 11 11 12 13 17 23 32 42 51 58 66
99 99 98 97 95 94 81 70 73 72 64 44 18 5 3 2 2 2 2 2 2 3 3 4 4 5 6 8 9 11 14 17 20 22 24 28 34 42 48 53 58 64 73
98 97 95 94 91 85 80 73 56 28 7 4 3 2 2 2 2 2 3 3 3 4 5 5 6 8 10 12 14 16 19 22 25 29 33 38 42 47 51 57 63 70 76
89 89 87 82 78 72 51 19 6 3 2 2 2 2 2 2 3 3 3 4 5 6 7 8 10 13 15 17 20 22 25 28 31 34 37 41 43 48 53 60 68 74 80
91 85 81 74 46 16 5 3 3 2 2 2 2 2 3 3 3 4 5 6 6 8 10 14 16 18 21 24 27 30 34 38 42 47 53 60 65 67 72 75 78 83 87
85 75 43 11 4 3 3 2 2 2 2 2 3 3 4 4 5 6 6 7 9 12 17 19 21 23 26 30 35 40 44 46 49 52 56 60 64 70 75 79 82 86 87
49 11 4 3 3 3 2 3 3 3 3 3 4 4 5 6 7 7 8 10 14 19 22 24 26 29 31 35 39 44 50 57 64 69 73 76 78 79 80 82 84 84 86
4 3 3 3 3 3 3 3 3 3 4 4 5 6 6 8 8 9 12 17 21 24 26 29 32 34 34 38 44 52 58 63 68 72 76 78 80 82 82 84 88 91 92
3 3 3 3 3 3 3 3 4 5 5 6 7 7 8 9 9 14 19 22 26 30 33 36 38 37 40 47 55 61 68 75 82 84 83 82 81 80 79 80 84 91 94
3 3 3 3 3 3 4 5 5 6 7 8 8 9 10 10 14 19 24 28 33 36 38 41 41 41 48 56 64 71 77 85 94 99 98 92 83 79 76 79 81 82 85

GFSGL_700_rhum_102.txt.gz
RH
34 34 30 28 32 40 51 60 70 84 89 93 90 93 98 92 92 95 98 100 93 84 83 85 88 89 92 87 88 93 98 91 85 99 98 94 93 94 96 93 98 98 99
38 33 37 38 34 33 36 42 49 52 59 66 74 76 76 78 84 89 91 82 76 73 73 78 76 81 85 88 90 91 95 99 99 100 97 96 97 99 96 99 99 97 95
52 50 39 35 41 43 44 44 45 48 50 53 52 56 58 62 64 67 70 73 75 78 76 75 75 84 92 93 96 98 98 98 88 100 99 100 99 99 96 98 81 97 98
52 55 56 54 39 38 43 46 49 52 55 57 60 62 64 66 68 67 68 69 70 78 88 90 88 86 90 90 92 100 98 99 99 98 95 99 91 99 81 96 98 100 98
46 42 43 57 63 55 44 43 48 52 57 60 63 66 69 70 71 70 78 88 90 92 90 91 91 98 98 100 89 100 98 95 97 100 98 97 93 86 100 100 96 79 100
34 33 36 43 54 65 66 66 66 57 54 58 63 67 68 69 68 75 85 100 100 99 99 100 99 99 100 97 99 80 90 99 98 100 100 99 67 89 68 92 95 98 99
33 32 24 29 48 56 59 59 60 58 43 53 60 67 70 71 74 81 89 97 98 99 100 100 100 100 100 88 97 99 87 100 88 90 77 62 69 82 88 90 97 99 98
33 33 29 25 29 29 32 35 35 35 36 40 47 61 66 66 58 65 87 100 100 100 100 100 99 100 100 94 89 100 98 100 83 68 69 76 83 89 94 94 93 91 92
34 34 32 32 35 37 38 38 38 39 40 42 46 51 60 71 84 88 95 100 100 100 100 99 100 99 82 100 100 96 74 74 81 86 91 94 94 95 96 96 98 97 95
36 35 34 34 36 37 39 41 46 54 61 66 74 83 93 98 100 100 100 100 100 100 99 93 95 100 99 84 74 82 87 87 85 84 83 81 78 73 68 63 59 58 59
41 40 38 37 37 42 44 55 65 67 71 69 70 89 95 100 100 100 100 100 89 86 100 100 90 74 80 87 88 83 78 72 60 44 22 7 3 2 2 3 3 4 4
41 42 41 46 54 55 64 76 76 92 80 69 86 100 100 100 100 100 100 100 92 76 72 79 82 79 77 70 58 40 18 5 2 2 2 2 2 2 3 3 3 3 4
41 44 47 50 54 54 54 92 68 82 99 100 100 98 95 96 82 72 75 76 73 73 73 74 68 53 29 10 3 2 2 2 2 2 2 2 3 3 4 4 4 5 5
44 49 53 53 68 71 59 57 66 86 97 81 78 86 81 78 73 72 73 74 73 67 53 32 8 3 2 2 2 2 2 2 2 3 3 4 5 6 8 8 9 9 9
47 61 87 97 100 99 61 72 76 82 97 100 99 90 73 73 75 75 69 55 30 10 4 3 2 2 2 2 2 3 3 3 4 5 7 8 9 11 13 15 16 16 18
99 100 100 100 80 98 89 75 92 96 97 97 97 92 85 77 62 40 14 4 3 2 2 2 2 2 2 3 3 4 5 6 8 9 11 12 14 16 18 22 26 30 33
100 100 100 99 95 99 99 98 98 97 97 96 82 72 58 29 7 4 3 3 2 2 2 2 3 3 3 4 5 7 8 10 12 13 15 17 18 20 23 26 30 35 40
99 98 98 98 98 98 97 96 96 95 94 83 55 29 9 4 3 3 2 2 2 2 3 3 3 4 5 7 9 11 12 14 16 18 21 24 27 29 31 32 33 35 39
97 98 97 97 96 97 97 96 92 80 48 18 5 3 3 3 2 2 2 2 3 3 3 4 5 6 8 11 13 15 17 18 19 22 29 34 36 38 44 52 55 56 58
96 97 96 95 95 94 92 78 31 8 4 3 3 3 3 2 2 2 3 3 4 4 5 6 8 10 13 16 19 21 21 20 22 27 34 44 49 51 52 57 64 66 70
96 96 95 90 74 37 11 4 3 3 3 3 3 2 2 2 3 3 4 4 5 6 7 9 12 16 18 22 25 23 22 26 33 39 45 53 61 65 69 72 74 73 73
89 88 73 30 9 5 3 3 3 3 3 3 2 2 3 3 4 4 5 6 7 8 11 14 18 21 24 28 27 25 31 37 43 49 56 62 66 68 69 72 76 79 80
78 42 10 4 3 3 3 3 3 3 3 3 3 3 4 4 5 6 7 7 9 12 15 19 23 26 31 32 28 33 41 46 52 61 69 73 73 71 71 72 72 74 84
12 4 3 3 3 3 3 3 3 3 3 3 4 4 5 6 7 7 8 9 12 15 19 24 29 33 36 33 34 43 49 54 63 71 77 82 86 80 72 72 74 75 82
4 3 3 3 3 3 3 3 3 3 4 4 6 7 7 8 8 8 9 11 15 20 24 30 36 40 40 37 42 49 55 60 71 82 89 91 93 94 87 75 69 67 74
3 3 3 3 3 3 3 3 4 4 5 7 8 8 9 9 10 10 10 14 19 24 30 37 42 46 42 41 48 53 60 64 76 85 91 97 100 100 96 86 69 63 66

GFSGL_700_rhum_105.txt.gz
RH
32 31 24 27 40 55 76 80 87 95 96 96 100 100 100 98 96 100 100 99 98 100 98 99 96 99 99 95 94 94 89 88 90 92 96 99 100 91 93 99 90 88 86
35 36 35 32 27 30 38 56 63 70 77 88 88 87 93 97 100 100 96 94 98 100 100 100 95 93 81 80 79 81 85 93 98 93 100 92 99 99 95 91 87 94 90
47 45 41 38 38 35 33 36 41 44 48 55 57 64 74 80 81 80 84 91 90 94 99 99 94 77 77 80 85 91 91 93 85 98 100 83 99 98 96 94 98 98 76
49 52 55 52 41 42 44 44 44 46 49 52 55 58 63 68 68 71 78 80 93 100 96 83 82 88 92 92 83 94 93 88 99 94 97 100 96 94 91 94 96 80 73
49 50 52 49 55 46 40 43 47 50 54 57 60 63 64 65 64 66 68 81 96 95 96 98 98 97 90 96 98 86 99 95 99 97 99 98 86 96 100 96 82 63 63
45 42 48 50 53 61 63 51 46 48 53 54 53 55 59 64 68 70 74 77 82 97 98 100 100 100 100 87 97 100 100 100 92 99 92 100 99 95 83 66 67 74 78
39 36 35 39 43 52 68 72 66 64 59 58 55 55 60 64 67 72 78 93 99 100 100 100 99 96 92 100 100 99 100 100 94 72 91 99 96 73 78 79 80 78 80
38 34 34 30 27 44 46 41 44 40 42 42 46 52 59 60 68 82 95 100 100 100 99 100 100 100 100 98 99 99 99 95 96 94 96 81 82 82 76 68 60 50 41
42 36 34 32 30 29 27 30 35 38 42 50 61 69 59 71 81 94 98 100 100 100 100 100 100 100 98 99 89 100 100 95 82 80 80 73 60 37 16 5 2 2 2
37 35 34 34 33 30 31 33 35 40 50 58 64 77 96 100 100 100 100 100 100 100 100 100 99 100 99 100 98 87 80 77 68 54 27 6 3 2 2 2 2 2 2
52 47 43 37 36 34 35 38 39 44 60 83 99 100 100 100 100 100 100 99 99 100 100 98 91 99 85 77 74 67 52 24 7 3 3 3 2 2 2 3 3 3 4
61 61 54 54 54 59 59 80 64 71 82 97 99 100 100 100 98 99 100 100 100 100 100 89 78 73 70 56 33 12 5 4 3 3 2 2 2 3 3 4 4 6 7
60 63 63 66 64 70 72 71 92 70 94 100 100 99 99 100 100 99 99 99 99 96 78 70 62 42 17 6 5 4 3 2 2 2 2 3 3 4 5 6 8 9 11
46 51 59 69 72 83 95 100 100 100 100 100 100 98 100 100 100 100 98 95 95 94 66 27 8 4 4 3 3 2 2 2 3 3 4 4 6 7 9 10 11 12 14
53 61 84 93 99 100 100 100 100 100 100 100 99 99 100 99 97 96 95 91 41 14 5 4 3 3 2 2 2 2 3 3 4 5 6 7 9 10 11 13 15 18 19
87 100 100 100 100 100 97 97 100 100 99 99 98 96 96 97 96 90 39 8 4 3 3 3 2 2 3 3 3 3 4 4 6 8 10 11 12 12 12 15 22 26 26
89 97 99 100 100 100 100 99 98 98 97 97 96 96 95 90 39 27 8 3 3 3 2 2 3 3 3 3 4 4 6 8 11 13 14 13 13 15 18 25 32 34 36
100 99 100 100 98 98 97 97 97 97 96 95 92 75 29 17 16 16 7 3 2 2 3 3 3 3 4 4 6 8 10 13 14 15 15 16 19 23 28 36 43 41 42
98 97 97 97 97 97 96 96 96 96 93 93 78 36 15 8 3 3 2 2 3 3 3 3 4 4 5 7 9 12 15 17 18 17 20 24 28 31 37 44 52 57 58
96 96 97 97 98 95 93 90 85 50 18 5 3 3 3 3 2 2 3 3 3 4 4 4 5 6 7 10 14 18 20 21 19 23 26 31 37 43 46 49 55 57 61
97 97 97 96 91 86 67 34 13 5 3 3 3 3 3 2 3 3 3 4 4 4 5 6 6 8 11 16 20 24 24 22 26 29 35 43 50 54 56 57 56 56 60
96 97 96 92 88 64 15 4 3 3 3 3 3 3 3 3 3 3 4 4 5 6 6 7 8 12 16 21 27 29 24 26 30 37 48 59 67 71 66 58 57 58 61
96 90 68 43 13 4 3 3 3 3 3 3 3 3 3 3 4 5 5 6 6 7 8 10 12 16 21 27 32 28 27 31 38 44 52 63 72 79 83 72 54 53 58
92 72 17 5 3 3 3 3 3 3 3 3 3 3 4 4 5 6 6 7 8 8 10 12 17 21 27 33 35 30 32 38 42 49 58 74 87 86 82 85 66 53 54
29 4 3 3 3 3 3 3 3 3 3 4 4 4 5 6 6 7 8 9 9 10 11 14 20 27 33 38 37 33 36 42 45 54 69 78 86 86 86 90 71 48 51
7 4 3 3 3 4 4 4 4 4 4 4 5 6 6 8 9 10 10 10 10 11 12 17 25 33 39 44 40 36 39 46 50 56 67 81 88 88 89 91 71 44 49

GFSGL_700_rhum_111.txt.gz
RH
26 23 19 25 40 61 76 89 99 98 98 97 100 98 100 99 100 100 100 100 100 100 100 100 100 100 99 100 100 100 100 100 100 92 98 96 89 86 93 95 98 92 98
30 30 25 21 24 38 55 78 92 100 100 100 100 100 99 100 100 99 100 100 100 100 100 99 99 99 100 100 100 99 100 100 100 98 92 93 98 97 94 98 90 80 96
32 37 36 32 28 26 34 43 75 90 95 91 92 99 100 100 99 99 100 99 99 100 100 99 99 100 100 99 99 100 100 100 99 98 98 99 98 98 88 99 99 100 100
33 40 40 41 36 33 31 34 42 59 77 92 92 95 100 99 100 100 100 100 100 98 98 100 100 99 99 99 99 98 99 98 99 100 98 91 96 98 98 98 100 100 100
32 44 50 46 44 40 37 37 40 49 57 69 79 86 95 99 98 100 97 99 96 90 97 96 89 89 91 98 100 100 100 99 97 90 100 97 99 96 100 100 88 100 99
31 38 45 51 48 45 43 42 42 45 48 49 48 54 55 62 74 82 83 80 80 80 81 90 87 99 98 92 91 98 96 99 100 100 100 99 97 96 99 90 74 92 78
33 36 39 42 51 50 46 45 44 44 46 47 49 51 55 58 61 65 68 69 72 78 89 96 96 88 94 99 74 98 100 100 99 99 99 98 96 96 76 75 70 61 54
58 40 40 42 44 51 55 53 50 47 46 47 48 51 52 55 60 66 69 71 73 88 95 90 98 100 94 98 100 100 99 100 99 99 99 92 90 66 55 47 35 21 12
82 79 60 47 50 53 57 60 59 58 54 53 52 54 53 53 55 59 66 70 86 94 100 100 99 98 96 100 100 93 98 99 98 99 95 82 52 28 15 11 7 4 3
84 90 88 77 60 60 60 60 62 63 64 65 62 57 55 57 64 76 86 100 97 96 99 99 99 100 100 96 100 100 99 97 96 93 69 35 30 18 8 4 2 2 2
73 85 94 90 88 87 75 72 68 66 66 70 71 72 76 78 82 89 98 100 100 100 100 99 100 100 100 100 99 97 98 89 46 46 66 51 13 4 3 2 2 2 2
80 87 95 98 99 98 92 91 83 78 76 79 86 87 99 100 100 99 100 100 100 99 100 99 99 98 98 98 98 96 92 93 93 66 20 5 2 2 2 2 3 3 4
88 100 100 99 99 98 100 99 100 100 99 100 99 99 98 99 99 98 100 100 100 100 99 98 97 96 97 97 94 95 95 54 12 2 2 2 2 2 3 3 3 4 5
83 76 79 79 86 87 82 82 91 99 88 98 97 100 99 100 96 99 100 100 99 98 97 96 96 94 95 96 82 21 3 2 2 2 2 2 3 3 4 4 4 5 6
62 66 64 63 66 72 86 98 100 99 97 98 100 100 100 100 99 99 97 96 95 97 96 96 96 95 62 7 3 3 2 2 3 3 3 4 4 4 5 6 6 7 8
63 61 62 63 67 81 100 99 100 100 100 100 100 98 94 97 96 97 97 96 96 97 91 75 17 3 3 3 3 2 3 3 3 4 4 4 5 6 7 7 8 10 14
77 74 73 76 99 100 99 99 100 100 100 98 100 96 96 96 96 97 98 94 91 54 16 3 3 3 3 3 3 3 3 3 4 4 5 6 7 8 9 10 13 16 19
95 91 100 100 100 100 99 100 100 100 97 95 96 95 96 98 94 96 90 65 26 4 3 3 3 3 3 3 3 4 4 4 5 6 7 9 10 10 13 18 22 19 21
100 99 100 100 100 100 100 98 96 96 97 97 96 95 97 94 88 41 6 3 3 3 3 3 3 3 4 4 4 4 5 6 7 8 10 12 13 16 26 29 27 23 23
98 99 98 98 97 96 96 97 97 97 97 97 96 94 64 22 5 3 3 3 3 3 3 3 3 4 4 4 5 6 6 7 9 12 14 15 18 27 31 30 31 23 23
97 99 98 96 97 96 96 96 96 96 95 88 27 5 3 3 3 3 3 3 3 3 3 4 4 5 6 6 6 7 8 10 14 16 17 20 26 31 37 37 35 30 24
96 96 96 96 96 96 96 96 95 82 47 12 4 4 4 4 3 3 3 3 3 4 4 5 6 6 7 7 7 8 9 14 20 20 21 22 27 35 42 42 40 32 26
96 96 96 96 96 94 88 74 47 11 3 3 4 4 4 3 3 3 3 3 4 5 6 6 7 8 8 8 9 9 13 22 24 22 22 23 29 38 46 48 40 28 26
96 96 95 95 94 88 66 26 4 3 4 4 4 4 4 4 4 4 4 5 5 6 7 8 9 9 10 9 10 11 20 26 27 24 24 24 31 41 49 53 46 30 27
98 95 94 94 68 22 6 3 4 4 4 4 4 4 4 4 4 5 5 6 7 8 9 10 10 11 11 11 12 13 22 28 29 26 26 27 34 44 50 56 51 34 30
93 88 37 7 4 4 4 4 4 4 4 4 4 4 4 5 5 6 7 8 9 10 11 12 12 13 13 13 14 15 24 30 30 29 29 30 35 46 52 58 60 42 31

GFSGL_700_rhum_114.txt.gz
RH
28 26 22 21 36 62 88 88 91 94 99 100 100 99 99 98 99 100 100 100 100 100 99 99 99 99 99 99 99 99 99 99 99 98 99 99 95 94 98 99 100 97 99
27 28 26 23 33 53 80 76 80 93 99 98 98 100 100 100 100 98 100 100 100 100 99 100 100 99 99 99 99 100 100 99 100 98 100 100 99 95 98 96 100 80 95
29 30 30 28 32 43 60 65 70 81 86 84 99 99 100 100 100 100 99 100 100 100 99 100 100 100 100 99 100 99 100 100 100 100 100 95 99 97 100 90 93 99 98
31 33 35 33 32 40 50 54 63 78 85 87 86 91 98 100 100 99 100 100 99 100 100 98 98 100 100 100 100 100 99 98 100 98 98 100 100 99 99 98 100 96 100
31 34 39 39 36 36 41 49 52 64 74 84 89 89 99 98 98 100 99 99 100 100 98 100 100 99 92 96 99 99 100 100 100 100 100 94 97 100 99 99 99 99 98
31 34 40 41 41 40 40 42 44 48 51 55 63 91 92 98 100 100 100 100 99 99 99 96 100 94 100 98 99 100 98 100 100 98 94 95 100 99 99 98 99 98 96
30 32 37 39 42 44 43 43 44 45 47 48 51 60 76 96 100 100 100 100 96 100 100 94 88 87 92 91 96 100 98 98 88 84 96 95 99 99 99 95 93 81 57
35 31 34 37 40 43 45 45 46 48 49 50 53 55 61 71 79 89 93 95 90 87 89 92 89 93 99 100 98 100 98 85 80 97 100 100 100 99 99 96 77 67 60
75 64 39 37 38 42 45 47 48 48 51 52 54 57 62 69 74 75 77 79 82 83 89 95 100 100 98 99 100 88 96 100 99 99 100 100 99 92 90 94 80 38 11
78 84 86 85 55 43 45 47 50 52 53 53 54 57 59 62 68 75 80 83 84 87 89 96 99 100 99 96 99 98 100 99 98 98 98 95 96 96 83 37 7 2 2
97 88 80 80 85 78 58 56 54 56 57 59 59 60 62 66 72 83 95 99 100 100 100 98 96 98 99 99 99 100 100 98 97 96 96 94 71 14 3 2 2 2 2
100 97 90 83 79 91 90 92 84 76 70 68 67 72 77 85 98 100 100 100 100 99 100 100 100 100 100 100 100 96 96 95 96 93 43 9 4 2 2 2 2 2 2
98 100 100 100 100 99 99 99 100 97 98 99 99 97 83 93 98 99 100 100 100 100 100 99 99 98 97 96 97 96 95 92 58 7 3 2 2 3 3 3 3 3 4
94 99 100 100 99 99 98 98 99 99 92 100 94 90 99 98 100 99 99 100 99 99 99 97 96 96 97 96 96 90 45 10 3 3 3 3 3 3 3 3 4 4 4
79 97 100 99 92 90 98 94 85 80 94 98 84 97 99 98 96 100 99 98 98 96 95 97 97 97 96 93 55 9 3 3 3 3 3 3 4 4 4 4 5 5 5
73 82 100 99 94 98 100 98 97 99 100 100 99 97 100 100 100 97 96 94 96 96 96 96 93 79 41 6 3 3 3 3 3 3 4 4 4 5 5 6 6 6 7
85 86 98 100 100 100 100 99 96 98 100 100 99 100 97 97 98 97 96 96 96 97 95 95 66 11 3 3 3 3 3 3 4 4 4 5 5 6 7 7 7 8 12
92 94 96 98 100 100 100 100 100 100 100 99 99 97 98 96 98 100 98 97 92 54 10 3 3 3 3 3 3 3 4 4 4 5 5 6 7 8 8 8 10 14 15
99 99 100 100 100 100 100 100 100 99 98 97 97 97 99 96 96 96 93 77 57 24 4 3 3 3 3 3 4 4 5 5 6 6 6 7 9 10 10 12 17 19 17
100 100 99 99 99 99 98 98 97 97 97 98 96 96 96 94 90 76 47 16 4 3 3 3 3 3 4 4 5 5 6 6 6 7 8 9 11 12 13 19 19 20 19
97 96 96 97 97 97 97 97 97 97 96 96 95 95 92 81 37 5 3 3 3 3 3 3 4 4 5 5 6 6 6 7 8 8 10 13 14 15 19 24 26 27 21
96 96 96 95 96 96 96 96 96 96 95 95 92 67 25 8 4 3 3 3 3 4 4 4 4 5 6 6 7 8 8 8 9 10 14 16 16 18 25 31 38 34 22
96 96 96 97 96 96 96 96 95 92 75 47 13 4 4 4 4 4 4 4 4 4 5 5 5 6 7 8 8 9 9 9 11 15 18 20 20 21 29 36 40 37 24
96 96 96 96 96 95 95 94 86 37 7 4 4 4 4 4 4 4 4 4 4 5 5 6 7 8 9 9 10 10 11 11 13 18 24 24 22 23 31 38 42 43 29
97 96 96 94 93 85 44 19 4 4 4 4 4 4 4 4 5 4 5 5 5 6 7 8 9 10 10 11 12 12 13 13 15 22 26 26 25 25 28 37 42 47 38
95 95 94 77 57 47 23 5 4 4 4 5 5 5 5 5 5 5 5 6 6 7 8 10 11 12 13 14 14 15 15 16 18 23 28 30 28 27 30 39 45 47 46

GFSGL_700_rhum_117.txt.gz
RH
43 51 56 30 26 30 46 73 82 83 86 93 99 100 98 100 100 100 98 99 99 88 88 88 98 97 97 98 99 99 99 99 99 100 99 98 100 99 99 99 96 91 96
45 52 45 27 26 34 48 74 85 86 92 91 96 99 100 100 99 100 100 100 99 100 99 100 100 100 100 99 99 99 100 99 99 100 99 99 99 99 100 97 92 98 96
52 53 31 28 26 30 46 70 81 88 95 98 99 100 100 100 98 100 100 100 100 100 100 100 100 100 99 99 99 99 100 99 99 99 99 99 99 100 99 96 100 97 95
54 50 29 29 28 29 42 57 66 82 90 100 96 100 99 98 100 100 99 100 100 100 100 100 99 98 100 100 100 99 100 99 99 100 99 99 98 97 98 100 92 90 98
64 36 30 32 31 31 36 43 48 66 81 91 88 92 99 100 100 100 100 100 100 100 100 99 99 100 100 100 100 100 99 100 99 99 99 99 99 99 93 100 95 98 99
68 35 32 36 37 35 37 42 43 46 51 70 86 88 96 94 99 99 100 100 100 98 100 100 100 100 100 100 99 100 100 100 100 100 94 100 100 100 99 88 100 100 99
75 34 33 37 41 40 40 42 43 44 49 54 65 76 85 98 97 99 100 100 100 100 100 100 100 100 99 100 100 100 100 99 98 100 100 100 100 99 100 100 99 99 98
71 45 33 37 41 43 43 43 44 46 48 52 57 65 76 90 99 99 100 100 100 99 100 100 100 100 100 100 100 98 98 100 100 99 99 99 96 99 99 98 99 97 96
80 55 33 37 40 42 44 46 48 49 51 54 56 59 70 75 81 94 99 99 100 100 100 96 94 98 100 99 97 100 98 98 100 98 96 98 99 100 99 97 95 95 60
85 79 51 42 43 42 45 47 49 52 57 54 56 64 68 70 83 96 98 98 100 100 100 100 100 100 100 93 98 99 100 100 99 100 100 100 99 97 96 95 92 56 6
96 93 93 75 59 46 47 49 51 52 56 58 59 65 84 81 78 82 84 92 99 98 98 99 99 99 96 100 99 99 98 100 100 98 97 96 96 95 76 32 8 2 2
100 100 94 90 86 76 81 83 65 57 56 60 63 69 77 89 95 91 87 84 90 100 100 99 100 100 99 100 100 100 98 96 96 96 96 96 83 22 3 2 2 2 2
100 100 100 98 86 83 88 94 88 88 78 72 74 82 83 82 93 100 100 100 99 99 99 100 100 100 100 99 96 96 96 97 96 93 42 7 3 3 3 3 3 3 3
94 96 99 98 85 92 80 96 100 97 97 100 99 99 86 79 89 99 99 99 100 100 100 99 98 97 96 97 96 96 96 76 22 3 3 3 3 3 3 3 3 4 4
100 99 96 99 100 100 99 100 99 99 97 99 91 95 84 92 100 100 100 99 99 99 99 97 96 96 96 97 96 93 55 5 3 3 3 3 3 3 3 4 4 4 4
100 100 98 100 99 97 89 90 88 96 95 99 100 98 95 99 98 99 100 99 98 98 96 98 97 96 95 87 57 9 3 3 3 3 3 3 4 4 4 4 5 5 5
100 100 100 100 100 99 98 100 99 93 100 100 100 100 100 99 100 97 97 97 97 96 96 97 94 64 25 11 5 3 3 3 3 3 4 4 4 4 5 6 7 7 7
99 100 99 100 100 100 100 100 100 99 99 100 100 99 99 98 97 96 98 97 98 96 93 87 74 31 6 3 3 3 3 3 4 4 4 4 5 6 7 8 8 8 10
100 100 100 100 100 100 99 99 99 99 99 99 98 97 96 96 98 96 96 96 94 82 34 7 4 3 3 3 3 4 4 4 4 5 5 6 6 7 9 10 9 10 13
99 100 100 100 100 100 100 99 99 98 99 97 96 97 96 96 97 96 95 77 28 7 4 3 3 3 4 4 4 4 4 5 5 6 7 7 8 10 10 10 12 14 15
100 100 99 100 99 98 98 97 97 96 97 96 96 96 95 96 95 65 24 16 10 4 3 4 4 4 4 4 4 5 6 6 7 7 8 9 10 12 13 14 14 16 17
96 97 97 96 96 96 96 96 96 95 95 95 96 95 95 93 79 40 10 4 4 4 4 4 4 4 5 5 6 7 7 8 8 9 10 11 13 15 15 15 17 20 20
95 96 95 95 96 96 96 94 96 96 95 95 95 92 40 9 4 4 4 4 6 5 5 5 5 5 6 7 7 8 9 9 10 11 11 12 15 18 18 17 19 24 25
94 94 94 94 94 95 96 96 95 95 94 70 19 5 4 4 5 7 5 5 5 5 5 5 6 6 7 8 10 10 11 11 12 12 13 14 18 21 20 19 20 27 30
97 97 97 97 96 96 96 96 94 89 41 6 4 4 5 5 5 5 5 5 6 6 6 6 7 8 9 10 11 12 13 14 14 14 15 17 21 24 24 21 22 29 33
97 97 96 95 95 95 95 92 36 6 4 4 5 5 5 5 5 5 6 6 6 7 7 7 8 9 10 12 13 14 15 16 16 17 18 19 22 25 26 24 24 29 39

GFSGL_700_rhum_120.txt.gz
RH
46 41 38 50 50 51 28 20 35 61 77 88 94 99 100 98 99 99 98 99 95 53 68 62 44 43 52 70 84 89 88 92 93 98 99 99 99 98 99 100 99 99 99
46 44 39 55 53 47 25 22 40 65 79 84 89 97 100 98 100 100 100 99 98 95 78 79 66 48 48 52 71 97 97 99 99 99 99 99 99 99 99 99 99 98 100
46 46 46 59 52 33 24 24 37 63 74 81 90 93 94 98 98 100 99 100 100 95 78 90 90 92 92 99 100 100 100 99 99 99 99 99 99 99 99 99 98 99 99
53 50 58 61 48 27 24 25 33 45 65 76 92 90 89 99 100 99 100 100 99 100 100 100 100 99 100 100 100 100 100 99 100 99 99 99 99 99 99 99 95 99 99
68 66 65 61 31 28 26 27 28 34 58 74 87 98 98 100 100 99 98 100 100 100 100 99 100 100 99 98 99 99 100 100 99 99 99 99 99 99 100 99 96 97 99
86 74 69 45 29 30 29 32 30 35 48 69 84 86 80 90 98 99 100 100 100 100 100 100 100 99 100 100 99 100 99 99 99 99 99 99 100 100 100 100 100 100 100
99 84 68 32 32 33 33 35 34 37 42 55 67 68 77 86 95 100 100 100 100 100 100 100 99 100 100 100 100 100 99 99 99 100 100 99 98 96 96 99 100 99 97
100 97 58 35 35 38 38 36 37 40 43 47 53 58 67 70 85 95 91 99 99 100 100 100 100 99 99 100 99 99 100 100 100 100 96 99 100 100 100 100 99 100 99
100 98 82 41 39 40 40 40 39 41 44 46 50 52 59 58 62 77 84 98 99 100 98 100 99 100 100 99 100 100 99 99 99 100 100 99 100 100 100 100 98 96 96
100 100 91 52 42 43 44 44 43 44 46 49 52 53 57 67 70 81 99 99 100 99 99 100 98 98 95 99 98 99 99 97 100 100 100 100 100 100 98 96 96 96 92
100 100 100 73 45 46 47 48 47 48 49 53 55 59 58 60 62 70 83 94 97 100 100 99 99 99 99 100 99 100 96 100 100 100 100 100 97 96 96 94 58 10 2
97 100 100 85 58 48 48 51 51 51 55 57 60 59 63 63 70 72 68 70 74 78 79 80 85 94 93 88 98 99 99 97 100 98 96 96 96 95 47 4 3 2 2
99 100 100 98 63 53 50 52 53 55 59 61 65 66 65 69 70 70 79 90 87 89 97 98 100 99 99 100 100 100 99 96 96 96 95 89 50 19 4 3 3 3 3
99 98 100 100 92 96 87 91 94 93 91 89 74 70 70 81 87 94 93 92 94 96 99 100 100 100 99 98 97 96 97 98 95 89 52 18 7 3 3 3 3 3 3
98 99 100 100 100 100 98 98 98 100 98 100 99 99 100 97 94 100 100 100 100 100 100 99 98 98 97 96 96 95 95 86 70 34 10 4 3 3 3 3 3 3 4
100 100 99 99 99 99 100 100 100 100 100 99 99 99 99 99 99 100 100 98 99 99 100 98 96 96 97 94 93 80 38 18 7 3 3 3 3 3 3 4 4 4 4
100 89 98 99 99 100 99 99 99 98 92 98 99 99 99 99 99 99 99 100 99 97 97 95 96 96 95 89 71 27 6 3 3 3 4 4 4 4 4 4 4 5 5
86 100 99 98 99 100 100 100 100 100 100 100 100 99 98 98 98 99 98 96 97 97 96 95 93 92 69 18 4 3 3 4 4 4 4 4 4 4 5 5 6 6 6
97 97 98 99 99 100 99 99 99 99 99 99 99 98 98 98 99 97 96 94 97 97 96 90 58 24 7 3 4 4 4 4 4 4 4 5 5 5 6 6 7 8 8
99 99 100 100 100 98 98 99 100 99 99 97 98 97 97 96 97 97 96 97 97 94 67 23 7 4 4 4 4 4 4 5 5 5 5 6 6 7 8 8 9 9 9
98 98 100 100 100 100 100 97 96 96 96 97 98 97 97 96 96 97 97 84 43 26 15 5 4 4 5 5 5 5 5 5 6 6 6 7 8 8 9 10 10 11 11
97 97 98 96 97 96 96 96 96 96 97 96 96 95 95 96 95 94 89 65 22 5 4 5 6 6 6 5 5 5 6 6 7 8 8 9 10 10 11 11 12 13 13
95 95 95 95 95 96 96 95 96 96 96 97 96 95 95 95 93 58 15 4 4 9 17 11 6 6 6 6 6 6 7 8 9 9 10 11 11 12 12 13 15 15 15
95 94 95 96 96 96 96 96 96 96 96 96 96 94 73 31 12 5 5 12 15 8 6 6 6 6 6 6 7 8 9 10 11 11 12 12 13 14 14 16 17 18 18
95 96 96 96 97 97 96 96 96 95 95 94 91 49 10 4 6 11 7 6 6 6 6 6 6 7 7 8 8 9 11 12 12 13 14 15 15 16 16 18 21 21 20
98 99 99 98 97 97 96 95 95 93 69 29 8 5 5 6 6 6 6 6 6 7 7 7 7 7 8 9 10 11 12 13 14 15 16 17 18 18 19 21 23 24 24

GFSGL_700_rhum_123.txt.gz
RH
23 42 42 42 52 57 56 60 59 29 21 32 65 71 86 95 99 99 100 100 100 100 97 94 49 51 49 54 50 52 54 60 65 75 93 99 100 98 96 97 99 100 98
17 30 44 43 46 55 54 62 49 25 22 50 70 74 77 84 99 93 99 99 100 100 99 76 48 46 63 54 49 54 55 58 65 78 92 99 96 98 98 98 100 99 100
21 24 42 46 45 51 54 58 40 23 24 59 71 73 75 92 97 100 84 98 100 100 99 93 89 66 63 57 46 48 52 72 89 94 98 98 98 99 99 99 100 99 99
42 43 54 49 48 54 59 58 32 23 29 65 73 77 77 79 89 93 100 100 99 100 100 99 95 74 74 86 64 57 76 92 99 99 99 100 99 100 99 99 100 100 100
79 99 76 60 56 62 62 53 26 23 31 61 63 64 78 86 87 89 93 99 100 100 100 100 100 99 100 99 100 96 99 100 100 100 100 100 100 99 99 99 100 100 100
87 99 99 94 82 80 67 35 26 27 34 50 49 62 74 76 84 93 91 100 100 100 100 99 100 100 100 99 100 100 100 100 99 99 100 100 100 99 99 99 99 99 100
91 100 100 99 100 95 53 30 29 31 39 44 47 56 66 74 78 83 96 100 99 100 100 100 100 100 100 100 100 100 100 100 100 99 100 99 99 99 99 99 100 100 100
93 100 100 100 100 90 36 32 31 38 42 42 50 49 55 73 76 81 96 99 99 100 100 100 100 100 100 100 100 100 100 99 98 99 98 99 100 99 100 100 100 100 100
78 100 100 100 100 53 42 34 38 43 46 42 49 51 54 56 73 88 87 86 91 99 100 100 100 100 100 100 100 100 99 98 99 99 100 100 100 100 100 100 100 99 98
77 98 100 100 99 51 40 46 40 45 50 47 48 50 55 56 74 89 84 84 87 93 98 99 100 100 99 100 100 99 100 100 99 99 100 100 100 100 99 99 98 97 96
64 92 100 100 97 53 51 50 49 48 50 50 48 48 49 53 56 58 73 95 94 89 90 87 94 95 96 98 100 100 100 100 99 100 100 98 100 99 98 96 96 95 74
64 92 100 100 92 63 55 56 50 52 57 55 52 52 52 54 55 57 70 86 99 100 100 100 99 100 100 100 100 100 100 100 100 100 100 99 98 96 95 93 72 41 11
64 96 98 98 98 100 71 61 68 53 57 63 60 62 55 58 58 59 64 75 95 95 97 94 93 90 98 100 100 100 100 100 100 98 98 97 94 90 64 34 12 4 3
72 99 99 99 100 100 91 60 67 61 64 65 66 65 61 61 67 66 81 79 78 79 80 87 93 100 100 100 100 100 99 97 97 95 94 86 72 47 11 4 4 4 3
83 97 99 99 99 100 96 74 98 97 97 78 66 62 63 67 69 76 82 78 93 99 100 100 99 100 100 100 98 97 96 93 91 88 73 38 11 4 4 4 4 4 3
92 98 97 98 99 99 98 100 100 100 100 89 99 99 97 96 98 100 100 100 100 100 100 99 99 100 98 97 96 95 96 90 63 34 9 4 4 4 4 4 4 4 4
97 98 97 98 99 99 99 100 100 98 100 100 100 100 100 99 99 99 99 99 99 98 98 97 97 97 97 96 93 91 77 39 8 5 4 4 5 4 4 4 4 4 4
100 99 99 99 96 98 98 99 99 99 99 99 99 99 99 99 99 98 98 98 97 97 97 96 96 96 95 94 86 44 9 5 4 5 5 5 5 5 4 4 4 5 5
98 99 99 98 98 98 99 99 99 98 99 99 99 99 99 100 97 97 97 97 96 96 95 95 95 95 68 29 12 6 5 5 5 6 6 5 5 5 5 5 5 6 6
100 99 99 100 97 98 98 98 98 97 98 98 98 98 98 98 98 97 97 96 96 96 97 95 77 39 13 5 5 5 6 6 6 6 6 6 5 5 6 6 6 7 8
100 97 100 100 100 100 98 97 96 96 97 99 97 98 99 97 96 95 96 96 98 97 89 42 17 8 4 5 7 7 7 7 7 6 6 6 6 6 6 7 8 9 10
97 97 97 97 96 96 98 98 100 96 96 97 97 98 97 96 96 94 96 94 79 50 25 8 4 7 10 7 7 7 7 7 7 6 6 7 7 7 8 9 10 11 11
96 96 96 96 96 96 95 95 96 97 97 96 96 98 97 95 94 96 96 92 47 7 4 15 24 12 7 7 8 8 7 7 7 7 7 8 8 9 10 11 12 13 13
94 94 95 96 96 97 97 97 96 96 96 95 96 97 98 97 97 90 45 15 15 28 39 18 7 7 8 8 8 8 8 8 8 8 8 9 10 11 12 13 14 15 15
96 97 95 95 95 94 95 95 95 96 95 96 96 96 95 95 91 57 24 34 43 18 7 6 7 8 8 9 8 8 8 8 8 9 10 11 12 13 14 15 16 17 18
96 95 94 95 95 96 96 96 96 96 96 96 94 93 69 29 12 34 62 17 6 7 7 7 8 9 9 9 9 9 9 9 10 11 12 13 13 14 16 18 19 20 20

GFSGL_700_rhum_126.txt.gz
RH
17 14 22 38 49 49 55 49 49 59 57 56 33 24 42 65 85 92 86 96 98 100 100 99 100 100 100 71 70 93 72 68 50 63 77 80 79 79 87 89 90 94 100
15 21 17 22 46 51 51 55 51 64 58 54 31 24 48 72 86 99 98 90 88 97 100 100 100 100 100 99 61 65 65 67 56 58 63 65 68 71 86 93 95 99 91
17 40 35 18 35 50 49 56 60 60 64 52 29 23 52 73 80 89 97 96 97 98 98 99 100 100 100 99 68 68 90 94 68 58 56 60 68 75 90 92 99 100 99
29 47 54 32 25 48 55 50 60 58 67 48 26 26 46 70 80 91 100 99 96 100 100 100 100 100 100 99 97 99 97 97 61 58 55 60 78 88 98 99 98 99 100
54 50 72 69 50 54 68 65 56 63 70 37 26 35 44 48 62 78 92 91 90 99 100 98 100 100 99 99 98 98 97 78 54 48 68 85 97 99 100 99 99 99 99
61 57 58 87 100 90 100 94 68 64 66 32 29 39 53 56 68 89 86 92 93 99 99 100 100 100 100 99 100 100 99 75 60 89 99 99 99 100 100 99 99 99 99
61 59 56 82 99 100 100 100 98 91 61 29 35 48 50 65 78 88 95 92 100 97 100 100 100 100 100 100 100 99 97 100 99 100 99 99 99 99 100 100 99 98 97
64 62 64 75 98 98 100 100 100 94 43 33 42 48 52 66 65 75 82 83 93 97 100 100 100 100 100 100 100 100 100 100 99 99 99 99 100 100 99 98 99 100 100
62 63 65 74 91 99 100 98 100 97 41 43 51 54 56 54 57 75 85 90 91 98 100 98 100 100 100 100 100 100 100 100 100 100 99 100 99 100 99 100 100 100 100
54 50 61 64 82 99 100 100 99 89 52 60 64 60 55 54 55 60 84 84 85 93 99 99 100 100 100 100 99 100 99 99 99 99 99 99 100 100 99 100 100 100 100
54 42 48 58 71 100 100 100 100 65 70 77 67 60 60 55 56 54 78 84 82 85 84 88 98 99 99 99 100 100 100 99 99 99 100 100 100 100 100 99 99 98 97
40 33 38 57 78 98 100 100 98 68 81 99 69 63 62 62 62 59 65 73 94 92 89 82 91 100 99 98 93 97 99 99 99 99 99 99 97 100 99 98 96 94 74
47 39 47 62 76 95 100 100 90 76 96 99 80 72 65 63 61 65 61 75 78 89 91 98 93 95 98 100 100 100 100 100 100 100 100 100 99 98 96 95 73 60 18
60 63 69 79 96 100 100 100 95 84 99 98 98 88 73 64 65 64 62 80 85 84 96 98 100 100 100 100 100 100 100 100 100 100 99 97 96 95 86 57 21 6 6
100 90 84 98 95 100 99 99 99 95 100 96 96 96 96 85 80 79 71 70 95 97 100 100 100 100 100 100 100 100 100 99 98 97 97 96 92 59 28 7 6 6 5
100 97 94 88 96 99 99 99 100 99 98 100 96 100 100 99 100 99 100 100 100 100 100 100 100 100 100 100 100 99 97 97 97 96 95 90 39 7 6 6 6 6 5
100 100 87 100 99 98 98 99 99 99 99 99 100 99 98 88 99 100 100 100 100 100 100 99 99 98 98 97 97 97 96 96 95 81 29 8 6 7 7 7 6 6 5
100 100 87 98 97 97 98 98 99 99 100 100 100 100 100 100 100 99 99 99 100 98 97 97 97 97 97 96 96 96 94 69 24 8 6 6 7 8 7 6 6 5 5
98 100 98 98 92 95 97 97 99 97 99 99 99 100 99 100 98 98 98 98 98 98 98 97 96 96 96 96 94 72 28 9 6 7 7 8 8 7 7 6 6 5 5
98 98 100 98 94 96 97 97 97 97 98 98 99 99 99 98 98 97 97 97 97 97 97 96 96 96 96 81 49 15 6 6 8 8 8 8 8 8 7 6 6 6 6
97 98 97 98 96 97 97 96 96 96 97 97 98 98 97 97 97 97 96 95 96 96 96 96 96 92 58 13 6 6 9 10 9 9 8 9 8 8 7 7 6 6 7
96 96 96 96 97 96 96 96 96 97 97 96 97 96 96 97 96 96 96 96 96 95 96 91 64 38 12 6 8 10 9 9 9 8 9 9 8 7 7 7 7 8 9
96 96 96 96 96 96 95 95 95 96 96 96 96 96 96 96 95 96 96 96 95 95 84 45 9 10 25 23 10 8 9 9 9 10 9 9 8 8 8 8 9 10 10
97 95 96 96 96 96 96 96 96 96 96 96 96 96 96 96 96 96 96 95 91 30 8 16 52 42 15 8 8 9 9 10 10 10 9 8 8 9 9 10 10 11 12
96 97 98 98 97 96 97 96 97 96 96 96 96 97 97 96 96 95 88 50 30 38 76 71 33 10 8 8 9 10 10 11 11 10 9 10 10 10 11 11 12 13 13
95 96 97 97 98 99 97 96 96 95 95 96 95 95 96 96 95 83 67 93 96 81 33 12 9 8 8 9 10 11 11 11 11 11 11 11 11 11 12 12 12 13 14

GFSGL_700_rhum_132.txt.gz
RH
15 8 9 8 9 14 16 21 41 56 97 98 65 53 54 55 62 68 59 32 26 59 77 93 91 96 99 100 99 100 100 100 98 83 72 53 49 44 43 46 47 50 58
15 11 6 5 8 8 12 17 24 49 93 96 90 79 63 61 62 64 57 28 38 66 80 92 94 90 100 100 98 100 100 100 85 81 66 70 68 63 56 77 91 96 95
15 8 5 4 4 17 20 26 20 37 77 95 87 81 67 59 60 67 56 28 50 71 86 93 90 99 100 100 100 100 100 100 96 84 70 67 80 76 85 100 92 100 99
7 6 7 7 5 4 24 39 37 24 61 100 94 99 96 63 68 69 55 30 52 71 86 96 94 80 99 100 100 100 100 100 99 99 100 100 94 100 99 94 99 97 93
7 7 7 7 7 6 12 38 48 32 29 99 99 89 97 80 67 70 52 35 60 73 90 95 98 89 81 100 100 100 100 98 100 99 100 99 100 98 97 97 96 99 96
8 7 6 6 8 8 15 31 45 54 28 76 98 98 99 98 71 70 61 37 57 58 85 100 100 99 98 98 99 99 100 98 100 100 100 100 93 99 98 100 99 98 98
8 6 7 10 10 8 18 41 37 63 86 47 90 96 100 100 93 73 63 41 60 62 73 98 100 95 100 96 100 100 100 100 100 100 99 98 99 98 96 99 99 98 99
9 16 18 18 8 15 30 51 49 68 98 86 99 92 100 95 100 95 58 40 53 65 96 99 100 98 95 86 100 99 100 99 99 100 99 100 99 98 98 99 99 99 99
29 25 22 17 17 30 48 53 47 72 86 86 95 89 100 100 93 95 52 46 55 62 83 88 96 100 98 94 100 100 100 100 100 100 100 99 99 99 99 99 99 99 99
35 29 28 41 48 45 50 52 47 45 60 94 77 83 78 98 99 98 55 49 51 53 72 98 93 100 100 100 99 100 100 100 99 100 99 99 99 100 99 99 99 99 99
46 47 45 41 43 41 44 50 50 36 51 70 98 100 100 99 92 97 55 51 53 58 69 81 84 92 99 100 100 96 99 100 100 100 100 99 100 99 99 99 99 98 99
61 61 56 51 43 44 42 45 49 37 31 65 99 96 98 99 89 95 61 56 58 63 70 84 85 94 95 99 100 98 100 100 100 100 99 99 99 99 99 99 98 99 99
65 61 61 54 42 44 41 40 44 36 28 48 89 94 100 100 99 94 61 60 66 67 81 85 88 85 83 100 100 98 100 100 99 99 99 99 99 99 99 99 99 99 100
66 61 58 57 55 49 46 44 37 37 40 59 69 90 99 100 100 96 66 66 70 68 74 74 88 87 80 90 98 96 100 100 99 98 99 99 99 99 99 99 99 100 100
79 80 81 69 72 59 69 64 63 71 72 66 68 94 99 99 100 99 89 78 76 76 81 88 93 87 95 99 99 100 100 99 99 92 94 98 99 100 100 99 99 99 98
73 80 80 78 83 100 99 88 87 80 77 76 99 100 100 99 99 100 99 99 100 100 99 100 100 100 92 100 99 99 93 97 90 90 100 99 100 100 100 99 97 96 89
82 86 84 90 95 99 99 87 85 77 82 89 100 100 100 99 100 100 100 100 99 100 100 100 89 92 99 99 98 100 98 96 94 100 98 98 99 99 97 97 89 17 8
89 89 88 94 96 99 96 91 86 80 89 99 100 100 100 99 99 99 99 100 98 99 100 100 100 100 100 100 100 99 100 100 98 98 97 96 96 96 91 34 8 9 10
90 95 95 96 96 96 96 95 93 96 98 98 99 97 98 99 99 99 99 99 99 99 100 99 100 100 99 100 99 98 98 97 97 97 96 96 93 46 9 8 10 10 10
94 95 95 96 96 95 95 95 96 95 95 97 97 97 98 98 98 99 99 98 98 98 98 98 98 98 97 97 97 96 96 96 96 95 93 43 12 13 12 10 10 10 10
94 95 95 95 95 95 95 95 93 97 97 97 97 96 96 97 96 96 97 96 96 96 97 96 97 96 97 97 97 96 96 96 94 85 85 76 46 17 12 11 11 10 10
94 94 95 95 95 96 96 96 95 95 97 96 96 96 96 96 96 96 96 96 96 96 96 96 96 96 96 96 96 96 95 95 87 72 66 64 62 58 33 15 12 11 11
93 94 95 95 95 96 95 95 95 96 96 96 96 96 95 96 96 96 96 96 96 96 96 95 96 96 96 96 95 96 94 95 95 94 86 72 42 18 12 12 13 12 12
95 93 94 95 95 95 95 95 95 96 96 96 96 95 96 96 96 96 96 95 96 95 96 95 96 95 96 95 95 96 96 92 60 34 22 14 12 13 14 14 14 14 13
98 96 94 94 95 95 95 96 96 96 96 96 96 96 96 96 96 96 96 96 96 95 96 94 95 96 96 96 96 86 56 54 58 29 13 13 14 15 16 16 16 14 12
99 99 97 95 95 96 96 96 96 96 96 97 95 96 96 96 96 96 96 96 96 96 95 95 96 96 96 95 92 94 78 31 12 12 14 15 17 18 18 16 15 14 13

GFSGL_700_rhum_135.txt.gz
RH
34 21 22 11 9 7 8 9 10 14 18 47 61 80 91 85 39 38 37 51 59 67 65 34 25 56 88 98 94 100 100 100 100 100 100 98 81 68 55 42 34 34 34
20 14 10 10 8 5 4 4 8 7 13 28 73 84 100 83 81 44 44 56 64 68 53 29 36 97 91 100 98 100 100 100 100 99 100 100 92 84 73 59 44 42 43
36 13 9 7 7 6 6 4 4 8 12 14 26 95 98 93 82 69 62 62 70 70 49 28 51 76 89 97 99 100 100 100 100 100 100 100 100 82 81 75 59 50 58
30 10 8 7 6 6 6 6 5 5 16 23 18 73 94 100 86 78 78 70 71 70 48 30 57 76 85 96 88 94 100 100 100 99 100 100 100 90 70 78 77 75 88
14 10 8 7 7 6 5 5 6 5 8 22 24 26 91 95 98 91 80 72 76 72 46 33 58 79 93 96 79 98 100 99 100 100 100 100 99 73 72 80 88 95 94
11 10 9 9 8 6 5 3 5 6 6 18 34 33 39 98 97 95 99 81 86 76 46 36 54 80 80 97 95 88 95 99 100 100 100 100 100 79 84 96 96 99 100
11 11 12 11 8 13 12 9 6 6 14 23 30 41 39 60 85 97 99 86 73 78 59 40 46 64 77 98 100 96 99 99 99 98 100 100 100 99 99 100 99 99 99
15 14 11 9 15 19 16 10 5 12 35 41 45 50 70 46 81 90 100 99 97 82 70 40 61 65 97 93 100 85 88 87 99 100 100 100 100 100 100 99 99 99 99
16 16 26 23 16 15 15 11 7 12 48 47 47 74 94 50 68 99 98 96 96 98 73 40 62 83 100 100 91 87 99 92 98 98 100 100 100 100 99 99 99 99 99
47 42 39 31 13 13 26 24 14 20 47 50 42 48 78 82 93 93 89 83 99 99 71 68 82 70 100 94 99 100 98 100 93 94 100 100 100 100 99 100 99 99 99
46 45 37 34 23 17 22 32 38 28 33 47 46 38 51 74 69 99 80 86 99 98 89 70 61 70 88 100 100 100 100 99 99 96 99 100 100 99 100 99 98 99 98
35 40 42 38 31 29 30 30 34 38 34 38 45 43 35 78 87 99 98 100 93 99 80 66 72 76 80 93 96 98 99 100 100 97 100 100 100 100 99 99 99 99 98
42 47 46 45 46 46 42 40 31 28 35 39 38 44 35 47 77 99 85 100 89 100 78 67 76 64 79 74 81 93 98 100 100 100 99 99 99 99 99 99 99 99 99
55 61 62 64 64 58 51 46 42 41 38 39 38 39 32 31 70 89 100 97 96 100 76 73 74 65 77 77 80 93 99 100 99 99 99 99 99 99 99 99 99 98 99
60 66 66 64 65 71 74 74 74 62 51 48 43 38 35 56 53 83 98 100 100 100 92 98 91 78 66 78 82 85 98 97 99 100 99 99 98 99 100 99 99 99 98
69 71 68 76 86 86 88 94 90 91 95 79 65 50 45 44 58 94 96 99 100 100 100 92 100 100 87 99 92 90 99 98 99 100 100 100 100 100 100 99 100 99 99
76 80 84 90 95 96 99 100 98 98 92 82 79 69 65 66 77 100 100 99 99 100 100 99 99 100 99 99 100 99 100 100 100 99 100 100 100 100 100 100 99 100 98
84 88 89 94 97 98 99 100 99 99 94 86 78 73 67 84 94 100 100 100 100 100 100 100 100 98 99 100 92 100 100 97 94 98 99 99 100 99 98 98 97 96 96
88 94 94 96 96 96 98 98 96 92 87 86 90 96 100 100 100 100 100 100 99 99 100 100 100 99 99 98 98 100 100 100 100 100 99 98 98 97 96 96 96 71 19
90 93 95 95 96 96 96 96 96 95 92 93 95 97 98 98 97 98 99 98 98 98 98 99 99 99 99 99 99 98 98 98 98 97 96 96 96 96 96 76 22 33 81
91 92 96 95 96 96 96 96 95 94 94 94 95 96 97 97 96 97 97 97 97 97 97 97 97 97 98 97 97 97 97 96 96 96 96 96 96 77 74 91 95 67 23
93 94 94 96 95 95 95 95 95 95 94 95 96 96 96 96 97 96 96 96 96 96 96 97 96 96 96 96 96 96 96 96 96 96 96 95 95 95 92 80 60 50 45
96 95 96 96 96 95 95 95 95 96 96 96 96 96 96 96 96 96 96 96 96 96 96 96 96 96 96 96 96 96 96 95 95 95 96 96 96 96 96 95 88 57 27
98 97 96 98 96 96 96 96 95 96 96 96 96 96 96 97 97 96 96 96 96 96 96 96 95 96 96 96 96 96 96 96 96 96 96 96 96 95 80 39 19 17 18
97 97 98 97 97 96 96 96 96 96 96 96 96 96 97 97 96 96 96 96 96 96 96 96 96 96 95 96 96 97 96 95 96 96 96 96 92 59 30 20 18 18 18
96 96 97 100 97 97 96 96 96 96 96 96 96 96 96 96 96 97 96 96 96 96 96 96 96 96 96 96 96 96 96 97 97 97 87 47 25 19 17 18 18 18 19

GFSGL_700_rhum_138.txt.gz
RH
79 72 42 31 30 12 10 7 6 7 8 10 12 29 51 59 52 61 83 84 90 89 85 60 60 64 67 64 81 51 88 82 97 93 100 100 100 100 88 67 54 47 35
85 65 56 23 17 10 7 6 6 7 6 6 6 12 21 53 80 85 93 98 51 79 70 63 68 62 71 50 32 70 98 87 99 99 98 100 100 100 99 93 75 60 50
49 37 30 18 12 8 7 7 8 8 7 5 9 8 13 41 67 86 99 98 84 68 97 60 59 62 66 36 48 97 91 99 99 97 99 100 100 100 100 98 100 82 71
61 52 21 15 10 8 8 7 6 5 6 6 6 12 16 22 64 98 98 91 98 86 73 62 65 67 62 32 67 92 99 92 100 96 100 99 100 100 100 100 99 97 90
69 47 18 11 10 10 9 8 6 5 4 5 5 5 13 21 21 90 90 94 87 94 82 73 73 72 56 36 67 89 96 100 90 93 99 97 100 100 100 99 98 97 99
22 15 12 11 11 11 9 9 6 4 4 4 4 5 8 19 28 42 88 99 94 90 85 81 75 75 51 38 55 81 96 98 87 89 99 98 100 100 100 100 100 98 98
24 15 14 13 14 13 10 8 13 13 9 6 6 6 8 16 33 37 98 97 99 98 90 73 76 75 53 42 60 79 81 89 93 91 86 98 100 99 100 100 100 100 97
14 12 9 9 11 10 7 12 16 17 15 6 6 11 18 30 34 48 55 80 96 96 99 98 92 80 68 47 59 84 73 99 86 82 72 88 89 100 100 100 100 99 99
29 25 25 22 24 16 21 22 13 13 17 15 9 13 27 44 54 58 72 66 82 99 98 99 97 96 83 52 74 64 93 92 98 91 89 98 99 100 100 100 100 99 98
36 32 26 29 33 30 30 30 24 10 17 24 19 14 31 45 43 68 94 61 93 83 99 95 99 99 89 50 90 86 100 96 97 96 96 99 99 100 100 100 99 99 100
35 33 32 32 32 30 29 27 26 18 16 18 22 23 18 44 44 40 75 88 74 70 93 84 96 100 90 79 100 85 98 100 98 100 100 99 99 99 100 99 100 100 99
38 36 30 27 27 26 23 24 30 24 18 13 14 26 30 27 44 37 54 77 91 90 100 100 100 92 97 77 88 77 75 97 93 90 96 100 99 100 100 100 100 99 99
46 45 44 48 45 39 34 35 31 29 27 25 21 23 24 31 31 42 36 94 99 89 100 89 100 84 94 83 68 88 97 99 93 95 95 99 100 100 100 100 100 99 99
50 45 46 49 54 57 53 45 45 46 40 32 31 30 24 26 33 38 37 58 92 99 100 100 100 92 100 97 80 80 85 84 89 84 98 100 100 100 98 99 99 99 99
55 49 48 54 56 56 58 56 56 56 55 54 52 47 34 33 37 37 37 36 83 99 99 91 98 100 100 87 79 78 97 95 81 88 96 100 96 98 100 99 99 99 99
61 60 59 58 62 65 66 79 68 65 73 78 73 70 73 52 44 46 43 59 66 98 99 99 99 100 100 98 94 99 98 92 84 100 100 98 97 99 99 99 99 98 98
60 62 61 64 68 72 79 84 89 90 93 98 91 84 84 76 71 66 51 55 59 98 100 99 99 100 100 98 99 100 100 91 89 100 99 99 98 99 99 99 100 100 99
68 70 68 70 75 77 83 87 90 94 96 97 96 93 88 85 82 81 72 68 69 100 100 100 99 100 100 99 98 100 99 100 100 100 98 99 99 99 99 99 100 99 99
73 78 78 77 83 86 89 92 95 96 96 96 95 90 88 83 77 86 94 100 100 100 100 100 99 99 100 99 99 100 100 94 97 100 100 100 98 99 98 99 100 99 97
84 85 85 83 86 92 93 94 95 95 95 95 95 95 96 98 100 100 100 100 99 100 99 98 98 98 99 99 99 99 99 99 100 100 100 99 99 99 98 97 96 96 96
89 90 90 90 89 93 92 94 95 95 95 95 95 96 96 96 97 98 99 99 98 98 97 97 97 98 98 98 98 98 98 98 98 98 98 97 96 96 96 95 95 88 87
94 94 94 92 92 93 94 94 95 95 95 96 96 96 96 96 96 97 97 96 97 96 97 97 96 96 97 96 96 96 96 96 96 96 96 96 96 95 95 94 96 96 95
95 95 95 93 94 93 93 95 95 96 96 96 96 96 96 96 96 97 96 96 96 96 96 96 96 96 96 96 96 96 96 95 96 96 96 95 96 96 95 95 95 96 96
96 96 96 97 95 96 95 95 95 96 96 96 96 96 96 96 96 96 96 96 96 96 96 96 95 96 96 96 96 96 96 95 95 96 96 96 96 96 96 95 95 96 95
98 98 97 97 97 97 97 96 96 96 96 96 96 96 96 96 96 97 97 97 98 98 97 96 96 96 95 96 96 97 96 95 96 96 96 96 96 96 96 95 96 94 62
98 98 98 98 97 97 97 97 96 96 96 96 96 96 96 96 97 97 97 97 97 96 97 97 97 96 96 96 95 96 96 96 96 97 97 96 96 96 96 94 84 52 27